GFSGL_con_sbcape_000.txt.gz
CAPE
0 0 0 0 0 0 0 0 0 0 0 0 0 0 0 0 0 26 35 47 54 39 6 76 39 47 78 14 16 47 14 41 45 66 61 55 45 41 22 9 0 0 0
0 0 0 0 0 0 0 0 0 0 0 0 0 0 0 0 0 0 25 56 50 32 33 33 19 8 37 1 18 16 15 27 27 29 27 29 28 2 0 0 0 0 0
0 0 0 0 0 0 0 0 0 0 0 0 0 0 0 0 0 0 0 0 19 12 30 13 17 11 13 15 25 32 6 25 35 33 5 1 0 1 0 0 0 0 0
0 0 0 0 0 0 0 0 0 0 0 0 0 0 0 0 0 0 0 0 9 5 3 0 5 8 5 9 14 9 13 6 9 27 3 0 0 0 0 3 1 0 0
0 0 0 0 0 0 0 0 0 0 0 0 0 0 0 0 0 0 1 1 5 4 1 0 0 1 0 4 6 5 8 12 18 12 0 0 0 1 7 0 0 0 0
0 0 0 0 0 0 0 0 0 0 0 0 0 0 0 0 0 0 0 2 14 19 1 1 0 0 0 0 2 1 9 23 3 23 10 15 0 0 0 0 0 0 0
0 0 0 0 0 0 0 0 0 0 0 0 0 0 0 0 0 0 0 3 4 6 1 2 4 0 1 0 0 0 12 9 1 4 23 0 0 0 0 0 0 0 0
0 0 0 0 0 0 0 0 0 0 0 0 0 0 0 1 0 1 1 1 3 8 1 0 1 8 0 14 20 9 0 0 0 0 0 0 0 0 0 0 0 0 0
0 0 0 0 0 0 0 0 0 0 0 0 0 0 0 1 1 0 4 2 3 4 0 0 1 2 0 0 2 0 0 0 0 0 0 0 0 0 0 0 0 2 0
0 0 0 0 0 0 0 0 0 0 0 0 0 0 0 0 1 0 1 1 2 2 0 0 0 0 0 0 0 0 0 0 0 0 0 0 0 0 0 0 0 0 0
0 0 0 0 0 0 0 0 0 0 0 0 0 0 0 0 0 2 0 0 0 0 0 0 0 0 0 0 0 0 0 0 0 0 0 0 0 0 0 0 0 0 0
0 0 0 0 0 0 0 0 0 0 0 0 0 0 0 0 0 0 0 0 0 0 0 0 0 0 0 0 0 0 0 0 0 0 0 0 0 0 0 0 0 0 0
0 0 0 0 0 0 0 0 0 0 0 0 0 0 0 0 0 0 0 0 0 0 0 0 0 0 0 0 0 0 0 0 0 0 0 0 0 0 0 0 0 0 0
0 0 0 0 0 0 0 0 0 0 0 0 0 0 0 0 0 0 0 0 0 0 0 0 0 0 0 0 0 0 0 0 0 0 0 0 0 0 0 0 0 0 0
0 0 0 0 0 0 0 0 0 0 0 0 0 0 0 0 0 0 0 0 0 0 0 0 0 0 0 0 0 0 0 0 0 0 0 0 0 0 0 0 0 0 0
0 0 0 0 0 0 0 0 0 0 0 0 0 0 0 0 0 0 0 0 0 0 0 0 0 0 0 0 0 0 0 0 0 0 0 0 0 0 0 0 0 0 0
0 0 0 0 0 0 0 0 0 0 0 0 0 0 0 0 0 0 0 0 0 0 0 0 0 0 0 0 0 0 0 0 0 0 0 0 0 0 0 0 0 0 0
0 0 0 0 0 0 0 0 0 0 0 0 0 0 0 0 0 0 0 0 0 0 0 0 0 0 0 0 0 0 0 0 0 0 0 0 0 0 0 0 0 0 0
0 0 0 0 0 0 0 0 0 0 0 0 0 0 0 0 0 0 0 0 0 0 0 0 0 0 0 0 0 0 0 0 0 0 0 0 0 0 0 0 0 0 0
0 0 0 0 0 0 0 0 0 0 0 0 0 0 0 0 0 0 0 0 0 0 0 0 0 0 0 0 0 0 0 0 0 0 0 0 0 0 0 0 0 0 0
0 0 0 0 0 0 0 0 0 0 0 0 0 0 0 0 0 0 0 0 0 0 0 0 0 0 0 0 0 0 0 0 0 0 0 0 0 0 0 0 0 0 0
0 0 0 0 0 0 0 0 0 0 0 0 0 0 0 0 0 0 0 0 0 0 0 0 0 0 0 0 0 0 0 0 0 0 0 0 0 0 0 0 0 0 0
0 0 0 0 0 0 0 0 0 0 0 0 0 0 0 0 0 0 0 0 0 0 0 0 0 0 0 0 0 0 0 0 0 0 0 0 0 0 0 0 0 0 0
0 0 0 0 0 0 0 0 0 0 0 0 0 0 0 0 0 0 0 0 0 0 0 0 0 0 0 0 0 0 0 0 0 0 0 0 0 0 0 0 0 0 0
0 0 0 0 0 0 0 0 0 0 0 0 0 0 0 0 0 0 0 0 0 0 0 0 0 0 0 0 0 0 0 0 0 0 0 0 0 0 0 0 0 0 0
0 0 0 0 0 0 0 0 0 0 0 0 0 0 0 0 0 0 0 0 0 0 0 0 0 0 0 0 0 0 0 0 0 0 0 0 0 0 0 0 0 0 0

GFSGL_con_sbcape_003.txt.gz
CAPE
32 238 396 421 107 59 73 32 0 3 20 30 62 109 164 364 560 489 303 173 206 353 593 250 328 735 684 755 769 356 394 84 106 85 85 33 47 66 69 41 80 37 16
34 10 226 437 116 58 70 24 0 0 0 27 127 129 137 269 424 382 177 58 81 212 187 160 254 563 603 674 902 615 739 87 48 72 56 17 19 43 30 61 31 21 33
0 3 421 371 300 238 60 3 2 0 4 77 206 185 205 262 359 325 268 105 129 166 288 191 329 305 488 616 602 691 620 88 93 83 44 17 14 6 25 19 9 15 0
0 0 291 207 191 88 31 30 30 53 87 274 354 193 224 197 120 201 146 68 136 143 188 214 297 217 382 326 187 356 529 120 95 20 23 3 3 5 4 2 0 1 0
0 23 125 102 22 57 53 34 98 140 194 243 311 238 228 150 53 93 89 49 203 154 238 200 243 106 43 20 216 59 206 135 13 9 7 3 4 4 11 52 29 2 0
0 26 0 0 0 57 63 118 142 190 272 344 253 190 270 68 0 0 2 29 223 313 297 208 105 3 0 0 0 0 52 62 8 6 4 3 15 88 69 50 11 0 0
0 18 0 0 1 30 45 101 112 184 313 406 374 302 366 101 1 0 0 34 148 233 327 226 85 20 69 34 0 0 0 1 13 80 278 157 143 109 54 65 3 0 0
0 8 0 0 0 15 33 60 40 102 280 296 342 397 357 59 1 2 0 29 33 48 271 271 143 198 69 94 53 96 62 58 72 163 336 321 290 195 117 27 9 23 6
0 1 0 0 0 0 30 29 0 42 112 80 120 270 286 6 0 1 27 5 19 86 130 198 162 73 0 4 50 111 133 10 0 0 0 0 0 3 6 0 0 17 25
0 0 0 0 0 15 108 1 0 50 37 0 45 227 70 5 1 1 42 143 116 124 16 0 5 6 0 3 199 155 91 0 0 0 4 1 0 0 0 39 36 99 102
0 0 0 0 22 40 74 0 0 0 0 0 0 5 43 15 0 2 1 4 94 142 79 96 14 0 0 0 0 0 40 0 0 88 23 5 0 0 0 17 72 108 68
0 0 0 0 0 2 22 0 0 0 0 0 0 0 2 10 0 2 0 1 8 32 36 14 3 0 0 0 0 0 0 0 0 0 0 6 2 0 0 2 0 0 0
0 0 0 0 0 0 17 1 0 0 0 0 0 0 0 0 4 0 1 0 0 109 39 3 0 0 0 0 0 0 0 0 0 21 3 0 0 0 0 0 0 0 0
0 0 0 0 0 0 0 0 0 0 0 0 0 0 0 0 1 9 0 0 0 0 0 0 0 0 0 0 0 0 0 0 0 1 2 0 0 0 0 0 0 0 0
0 0 0 0 0 0 4 0 0 0 0 0 0 0 0 0 0 0 6 5 3 0 0 0 0 0 0 0 0 0 0 0 0 5 0 0 0 0 0 0 0 0 0
0 0 0 0 0 0 0 0 0 0 0 0 0 0 0 0 0 0 0 0 0 0 0 0 0 0 0 0 0 0 0 0 0 0 0 0 0 0 0 0 0 0 0
0 0 0 0 0 0 0 0 13 0 0 0 0 0 0 0 0 0 0 0 0 0 0 0 0 0 0 0 0 0 0 0 0 0 0 0 0 0 0 0 0 0 0
0 0 0 0 0 0 0 0 0 9 30 24 0 0 0 0 0 0 0 0 0 0 0 0 0 0 0 0 0 0 0 0 0 0 0 0 0 0 0 0 0 0 0
0 0 0 0 0 0 0 0 0 0 0 31 24 0 0 0 0 0 0 0 0 0 0 0 0 0 0 0 0 0 0 0 0 0 0 0 0 0 0 0 0 0 0
0 0 0 0 0 0 0 0 0 0 0 0 0 0 0 0 0 0 0 0 0 0 0 0 0 0 0 0 0 0 0 0 0 0 0 0 0 0 0 0 0 0 0
0 0 0 0 0 0 0 0 0 0 0 0 0 0 0 0 0 0 0 0 0 0 0 0 0 0 0 0 0 0 0 0 0 0 0 0 0 0 0 0 0 0 0
0 0 0 0 0 0 0 0 0 0 0 0 0 0 0 0 0 0 0 0 0 0 0 0 0 0 0 0 0 0 0 0 0 0 0 0 0 0 0 0 0 0 0
0 0 0 0 0 0 0 0 0 0 0 0 0 0 0 0 0 0 0 0 0 0 0 0 0 0 0 0 0 0 0 0 0 0 0 0 0 0 0 0 0 0 0
0 0 0 0 0 0 0 0 0 0 0 0 0 0 0 0 0 0 0 0 0 0 0 0 0 0 0 0 0 0 0 0 0 0 0 0 0 0 0 0 0 0 0
0 0 0 0 0 0 0 0 0 1 0 0 0 0 0 0 0 0 0 0 0 0 0 0 0 0 0 0 0 0 0 0 0 0 0 0 0 0 0 0 0 0 0
0 0 0 0 0 0 0 0 2 0 0 0 0 0 0 0 0 0 0 0 0 0 0 0 0 0 0 0 0 0 0 0 0 0 0 0 0 0 0 0 0 0 0

GFSGL_con_sbcape_006.txt.gz
CAPE
347 537 524 511 396 360 334 147 95 114 91 65 64 187 182 344 551 671 500 400 461 634 846 732 901 922 1202 827 1095 972 841 360 158 57 31 57 65 64 67 9 101 6 2
222 379 494 392 433 396 311 217 51 44 48 28 82 84 91 281 405 484 348 178 301 562 364 804 814 752 1065 1061 841 696 367 138 93 59 29 68 39 51 86 51 89 74 80
137 220 474 396 309 325 363 279 71 11 18 47 127 82 238 350 466 505 391 161 148 496 608 748 891 926 836 977 831 436 88 94 55 26 42 37 69 90 57 123 98 125 9
45 151 353 274 398 438 315 186 118 57 89 293 236 274 305 212 344 352 144 120 224 480 382 647 683 543 842 687 760 546 324 150 102 26 13 14 20 83 55 54 15 2 0
14 125 197 302 298 284 261 178 169 219 288 331 315 306 379 262 170 166 108 469 435 320 392 300 253 143 63 414 1053 319 391 184 85 19 14 8 14 39 50 47 0 0 0
12 32 66 47 139 273 303 322 318 300 324 271 241 252 345 84 0 0 63 259 491 552 491 134 149 15 0 1 0 141 243 170 39 12 4 4 8 26 46 25 3 0 1
12 7 17 35 140 234 254 295 357 431 499 387 366 350 391 64 0 0 0 149 620 627 580 418 153 24 37 2 0 0 0 0 34 43 0 0 8 146 137 218 81 32 7
2 5 7 41 215 340 374 350 452 585 678 696 575 550 458 7 1 0 0 238 507 395 335 240 317 179 120 125 91 21 45 40 66 50 14 62 455 440 475 195 199 311 116
0 10 15 12 110 147 235 578 601 657 691 567 640 618 535 28 0 0 0 1 341 294 336 300 274 258 0 8 156 124 107 0 0 0 32 139 132 125 160 4 165 69 48
0 0 37 61 46 157 348 373 677 569 423 337 581 634 116 101 0 1 0 45 288 325 336 179 13 29 0 0 341 229 182 109 33 10 19 14 96 9 0 330 98 116 187
0 0 19 135 195 363 581 423 505 273 138 335 573 552 363 58 4 2 0 417 504 209 201 92 9 0 0 0 53 501 191 199 64 105 97 230 318 105 37 182 216 315 207
0 0 0 61 83 322 628 341 210 193 279 442 665 605 470 49 0 1 0 6 48 279 252 132 1 0 0 0 0 0 1 45 197 135 69 30 65 59 61 253 375 270 149
0 0 0 37 122 278 401 389 173 91 89 275 378 429 462 410 52 1 0 0 1 132 179 18 0 0 0 0 0 0 0 185 269 275 252 278 222 197 219 118 48 3 0
0 0 0 0 158 249 209 189 40 5 0 13 148 262 261 379 206 63 7 7 0 2 0 0 0 0 0 0 0 0 0 29 208 162 5 2 9 19 15 2 0 0 0
0 0 0 0 91 266 187 213 87 43 0 0 0 64 198 271 307 128 121 167 165 49 25 0 5 38 71 62 7 0 0 0 3 17 23 9 6 9 0 0 0 0 0
0 0 0 0 0 109 257 236 0 0 0 0 0 0 0 0 0 3 3 0 0 0 19 69 67 59 33 15 0 0 0 0 2 28 38 4 0 0 0 0 0 0 0
146 144 0 0 0 0 2 276 268 0 0 0 0 0 0 0 0 0 0 0 0 0 0 0 0 0 0 0 0 0 0 0 3 10 13 11 0 0 0 0 0 0 0
95 0 0 0 0 0 0 0 2 46 82 50 0 0 0 0 0 0 0 0 0 0 0 0 0 0 0 0 0 0 0 0 0 3 10 20 0 0 0 0 0 0 0
0 0 0 0 0 0 0 0 0 0 0 0 2 0 0 0 0 0 0 0 0 0 0 0 0 0 0 0 0 0 0 0 0 0 0 2 0 0 0 0 0 0 0
7 0 0 0 0 0 0 0 0 0 0 0 1 36 11 0 0 0 0 0 0 0 0 0 0 0 0 0 0 0 0 0 0 0 0 0 0 0 0 0 0 0 0
106 0 0 0 0 0 0 0 0 0 0 0 0 0 0 4 65 107 4 0 0 0 0 0 0 0 0 0 0 0 0 0 0 0 0 0 0 0 0 0 0 0 0
245 92 0 0 0 0 0 0 0 0 0 0 0 0 0 0 0 3 16 0 0 0 0 0 0 0 0 0 0 0 0 0 0 0 0 0 0 0 0 0 0 0 0
206 118 1 0 0 0 0 0 0 0 0 0 0 0 0 0 0 0 0 0 0 0 0 0 0 0 0 0 0 0 0 0 0 0 0 0 0 0 0 0 0 0 0
246 177 74 5 0 0 0 0 0 0 0 0 0 0 0 0 0 0 0 0 0 0 0 0 0 0 0 0 0 0 0 0 0 0 0 0 0 0 0 0 0 0 0
296 276 211 119 53 9 31 19 3 2 0 0 0 0 0 0 0 0 0 0 0 0 0 0 0 0 0 0 0 0 0 0 0 0 0 0 0 0 0 0 0 0 2
149 241 216 170 98 59 33 78 79 105 97 75 38 27 11 23 27 6 0 2 0 0 0 0 0 0 0 0 0 0 0 0 0 0 0 0 0 0 0 0 0 1 0

GFSGL_con_sbcape_009.txt.gz
CAPE
405 661 970 847 331 474 392 202 155 120 39 54 73 98 100 195 545 756 838 635 536 1007 1059 868 888 995 1308 1333 1366 1176 1042 461 30 22 12 18 10 7 6 2 4 5 0
287 512 1004 988 470 536 445 171 79 53 15 36 60 88 70 626 472 648 427 339 558 696 814 689 704 867 1025 1132 851 725 475 141 5 9 29 43 27 11 8 70 69 50 10
269 291 786 420 508 477 475 721 23 14 24 36 52 59 198 474 588 452 285 332 483 632 650 748 743 826 1063 1006 496 333 240 55 14 5 64 45 14 6 38 32 65 68 82
147 245 320 377 351 606 199 136 32 16 16 389 67 300 271 412 395 399 95 362 531 464 494 685 677 907 954 786 334 159 45 47 25 38 50 66 52 52 21 30 15 11 25
108 228 430 401 371 264 126 118 37 36 307 362 255 201 260 319 209 439 518 523 151 340 557 457 287 89 299 424 120 154 49 44 36 42 38 38 48 55 8 4 0 7 9
114 173 271 234 216 258 168 592 419 648 515 574 324 396 499 91 0 0 0 681 410 494 247 52 40 28 0 0 62 55 11 5 18 14 16 15 12 29 23 0 0 0 3
136 156 93 189 195 200 192 152 190 783 951 482 193 641 401 8 0 0 0 619 772 627 472 266 71 4 1 4 0 0 0 10 0 3 3 4 3 89 18 5 43 50 14
108 132 90 228 300 203 519 584 520 828 736 604 410 577 402 0 1 0 0 720 823 503 449 303 194 140 63 84 46 112 50 5 0 0 0 2 13 21 195 120 164 349 112
76 147 95 337 360 455 469 580 790 1081 1103 836 685 576 344 0 1 0 0 561 499 537 368 335 207 161 0 1 150 19 2 0 0 0 3 2 51 132 197 105 137 96 1
38 129 142 273 291 295 460 693 779 850 754 921 802 625 94 24 1 2 0 547 611 435 564 173 15 3 0 10 181 47 3 1 1 0 7 1 15 37 0 481 274 83 37
2 147 219 342 335 655 490 569 628 494 493 900 738 593 529 224 0 1 0 555 685 503 123 161 7 0 0 0 53 40 26 12 8 143 199 236 313 102 0 100 349 507 249
0 117 300 426 378 669 725 375 229 358 591 871 799 648 267 178 0 0 0 16 4 497 68 67 0 0 0 0 13 18 18 48 182 234 250 291 129 0 5 174 695 331 384
0 71 243 419 352 628 659 235 135 230 551 864 685 517 287 168 7 0 0 0 0 555 186 7 0 0 0 0 0 0 0 111 125 69 19 23 6 22 514 604 396 104 83
0 36 138 246 301 484 275 119 1 13 324 415 434 505 444 301 101 30 6 8 0 0 0 0 0 0 0 0 0 0 14 185 257 224 230 161 256 412 362 286 65 8 0
2 1 123 156 300 368 401 136 11 142 0 94 195 356 436 348 257 54 31 61 125 25 41 0 0 38 26 0 0 0 66 113 211 187 49 75 114 198 109 49 6 0 0
114 1 4 54 193 247 301 289 0 0 0 0 0 37 136 25 23 7 0 0 0 0 62 39 11 22 86 5 1 2 0 0 12 6 27 14 2 11 12 4 0 0 0
343 281 0 0 48 354 245 359 293 0 0 0 0 0 0 1 0 0 0 0 0 0 131 92 93 88 70 43 12 4 0 0 49 27 33 4 0 0 0 0 0 0 0
454 0 0 0 0 0 273 370 384 285 147 58 0 0 0 0 0 0 0 0 0 0 32 153 141 117 69 34 7 3 1 0 1 0 3 34 42 0 0 0 0 0 0
48 0 5 0 0 0 0 10 198 237 261 105 1 0 0 0 0 0 0 0 0 0 0 0 1 0 0 0 1 0 9 2 1 44 89 66 84 30 3 0 0 0 1
136 0 2 0 0 0 0 0 0 0 3 2 1 0 0 0 0 0 0 0 0 0 0 0 0 0 0 0 0 0 0 0 0 49 43 48 70 58 8 0 0 0 0
54 14 0 0 0 0 0 0 0 0 0 0 0 0 0 0 0 0 0 0 0 0 0 0 0 0 0 0 0 0 0 0 0 0 0 39 43 17 43 40 0 0 0
461 276 21 0 0 0 0 0 0 0 0 0 0 0 0 0 0 0 11 6 0 0 0 20 0 0 0 0 0 4 0 1 0 0 0 0 1 14 20 2 0 0 0
764 479 326 50 0 0 0 0 0 0 0 0 0 0 0 22 0 0 20 117 120 1 0 0 12 0 0 0 0 0 0 0 1 0 5 6 0 0 0 0 0 0 0
815 827 818 330 50 0 0 6 0 0 0 0 0 0 0 23 22 0 0 46 176 210 76 0 0 0 0 6 0 0 0 0 0 0 0 0 0 0 0 0 0 0 0
631 1045 1170 785 300 74 75 21 3 11 0 0 0 0 0 3 3 6 8 4 89 224 189 127 32 0 0 0 0 0 0 0 0 0 0 0 0 0 0 0 0 0 0
439 711 1273 1063 668 462 329 329 237 229 143 63 2 13 18 0 10 139 177 99 56 72 214 184 123 21 0 0 0 0 0 0 0 0 0 0 0 0 0 0 0 0 0

GFSGL_con_sbcape_012.txt.gz
CAPE
1081 1354 1213 1064 687 733 708 576 669 554 440 311 218 218 320 215 478 657 592 777 764 768 759 632 987 528 600 403 385 355 370 18 1 4 4 4 7 17 24 12 7 3 0
764 942 1045 1174 621 805 699 203 716 569 252 204 147 68 335 475 710 406 592 362 619 644 739 492 628 691 388 445 380 246 12 2 0 5 7 10 7 2 7 23 43 29 1
826 868 948 993 559 894 597 615 576 439 221 268 29 234 440 826 457 134 356 362 604 620 571 653 262 229 292 380 226 21 2 2 3 2 7 6 9 32 40 7 8 35 8
709 542 954 559 752 895 585 208 540 164 154 59 188 371 537 581 668 206 210 545 71 291 194 244 289 206 274 133 79 47 5 7 14 8 7 17 10 35 47 12 21 29 39
482 587 862 697 675 774 79 382 131 459 359 347 77 174 533 379 28 254 354 54 167 33 22 40 4 100 171 34 8 10 9 20 21 12 12 13 21 32 3 1 3 4 2
511 633 667 638 707 511 295 537 730 692 403 305 579 369 506 0 0 0 67 166 175 183 28 138 23 0 0 0 2 1 7 0 14 24 26 11 1 0 0 0 0 0 11
440 404 373 522 492 464 308 344 332 403 446 378 393 393 81 0 0 0 0 303 377 217 72 34 33 1 0 0 0 0 0 0 1 0 2 0 0 0 0 0 0 0 0
289 273 307 278 286 536 603 470 615 848 706 396 545 578 117 0 0 0 0 563 562 208 116 35 50 48 0 1 4 1 0 0 0 0 0 0 6 0 0 0 0 0 0
175 247 314 363 506 435 573 879 818 898 750 507 692 707 72 0 1 0 58 528 361 174 123 118 36 3 0 2 2 0 0 0 0 0 0 0 7 1 0 0 4 0 0
153 179 426 518 508 488 943 968 1119 1040 516 660 731 643 0 0 1 2 0 544 415 178 78 0 0 0 0 0 1 0 1 1 0 0 0 0 0 2 0 19 0 0 0
188 237 556 727 1019 1092 1399 1305 1230 491 670 714 482 552 198 19 0 1 0 364 342 171 6 0 0 0 0 4 0 0 0 0 0 0 0 26 58 49 54 76 163 7 0
221 307 676 970 621 892 1304 1399 1115 815 665 793 576 359 327 38 0 0 0 24 3 43 16 0 0 0 0 0 0 0 0 0 0 0 0 17 32 15 45 63 322 136 303
239 699 850 743 1099 1106 1011 1230 819 1003 745 662 601 236 175 1 0 0 0 0 4 60 1 0 0 0 0 0 0 0 0 6 39 32 0 0 37 0 0 218 121 3 41
390 867 970 840 1214 961 619 443 303 614 645 670 485 359 143 8 0 0 0 0 0 0 0 0 0 0 0 0 0 0 23 62 35 13 49 92 3 0 317 245 15 1 0
379 702 812 713 921 996 657 68 260 409 349 563 598 512 209 120 52 18 65 41 1 0 0 0 0 0 0 0 0 0 1 63 5 2 0 0 67 163 291 199 9 0 0
216 440 386 367 483 510 453 20 0 0 0 0 0 509 172 192 9 5 15 5 7 0 0 0 5 7 0 0 0 2 11 111 68 64 123 106 166 208 177 43 1 0 0
173 190 140 129 304 498 399 464 271 0 0 0 0 0 0 0 0 0 0 0 0 0 87 45 15 37 0 0 0 0 0 0 49 5 0 0 0 1 0 0 0 0 0
311 40 117 16 309 243 427 503 394 150 20 4 0 0 0 0 0 0 0 0 0 0 68 127 99 48 74 31 0 0 0 0 0 0 3 0 0 0 0 0 0 0 0
247 15 13 20 19 69 345 387 433 338 183 35 0 0 0 0 0 0 0 36 21 7 0 30 180 153 101 91 48 1 0 0 0 0 6 0 0 0 0 0 0 0 0
323 0 4 25 0 0 0 113 307 435 321 129 5 0 0 0 0 0 0 0 0 0 0 0 0 6 10 14 19 14 0 0 0 0 0 2 0 0 0 0 0 0 0
79 21 0 0 13 0 0 0 0 35 280 286 121 0 0 0 0 0 0 0 0 0 0 0 0 0 0 0 0 0 0 0 0 0 0 0 0 0 0 0 0 0 0
172 142 1 0 0 0 0 0 0 0 0 1 2 0 0 0 0 0 0 0 0 0 0 0 0 0 0 0 0 0 0 0 0 0 0 0 0 0 0 0 0 0 0
462 317 248 13 0 0 0 0 0 0 0 0 0 0 0 0 0 0 0 0 0 0 0 0 0 0 0 0 0 0 0 0 0 0 0 0 0 0 0 0 0 0 0
863 681 464 271 15 0 0 0 0 0 0 0 0 0 0 0 0 0 0 0 0 0 0 0 0 0 0 0 0 0 0 0 0 0 0 0 0 0 0 0 0 0 0
663 912 933 757 220 16 2 0 0 0 0 0 0 0 0 0 0 0 0 0 0 0 1 0 0 0 0 0 0 0 0 0 0 0 0 0 0 0 0 0 0 0 0
585 811 948 969 842 240 47 19 9 0 0 0 0 0 0 0 0 0 0 0 0 0 9 23 2 0 0 0 0 0 0 0 0 0 0 0 0 0 0 0 0 0 0

GFSGL_con_sbcape_015.txt.gz
CAPE
373 185 136 262 146 16 5 0 0 0 0 0 0 24 20 39 33 50 50 157 143 240 209 155 216 122 149 194 127 69 6 0 0 2 0 2 1 3 5 5 9 27 0
403 258 208 79 90 7 0 5 0 0 0 0 4 22 141 175 11 5 64 55 177 120 121 223 182 176 188 122 23 1 2 0 0 2 3 3 1 12 23 27 33 9 5
233 298 384 149 137 52 1 9 0 0 0 8 29 169 187 68 39 25 89 112 111 35 108 112 133 140 193 20 1 3 1 1 1 3 7 10 13 9 6 17 9 6 7
439 291 248 243 142 33 4 12 0 0 0 29 32 223 117 153 115 47 207 51 58 53 62 84 124 122 51 7 1 1 1 1 2 3 6 10 6 13 20 12 15 11 15
312 332 200 260 226 56 55 17 11 0 14 34 45 92 0 0 2 49 32 28 9 13 4 1 45 17 2 0 1 5 5 6 4 5 19 17 12 7 4 8 2 23 21
357 219 263 126 411 84 58 31 31 26 34 19 44 0 0 0 1 0 42 50 28 17 28 1 0 0 0 0 0 5 1 0 4 4 8 15 9 4 8 3 4 9 14
292 248 267 250 5 7 41 31 24 29 61 57 21 0 0 0 2 0 0 71 15 9 0 11 2 0 0 0 0 0 0 1 0 1 3 2 1 1 0 0 0 0 0
104 124 136 150 50 41 25 12 40 70 27 28 9 0 0 0 2 0 0 88 66 24 3 0 1 1 0 0 0 0 0 3 0 0 0 0 0 0 0 0 0 0 0
29 63 96 76 62 181 140 20 38 37 62 12 0 0 0 0 1 0 111 41 22 15 7 5 2 0 0 0 0 1 0 0 0 0 0 0 0 0 0 0 0 0 0
27 45 203 116 150 97 15 19 50 34 39 43 7 0 0 0 1 2 0 5 0 0 0 0 0 0 0 0 0 0 1 0 0 0 0 0 0 0 0 0 0 0 0
18 38 180 91 133 187 124 167 119 108 89 58 0 0 0 0 0 2 0 0 0 0 0 0 0 0 0 0 0 1 0 0 0 0 0 0 0 0 0 0 0 0 0
13 160 411 269 470 309 241 186 64 3 0 0 0 0 0 0 0 1 0 0 0 0 0 0 0 0 0 0 0 0 0 0 0 0 0 0 0 0 0 8 5 0 0
1 230 155 115 217 207 175 73 73 37 6 0 0 0 0 0 0 1 0 0 0 0 0 0 0 0 0 0 0 0 0 0 0 0 0 0 0 0 0 2 0 0 0
173 109 113 359 315 291 122 123 36 40 39 47 6 0 0 0 0 0 0 0 0 0 0 0 0 0 0 0 0 0 0 0 0 0 0 0 0 0 0 0 0 0 0
247 140 104 318 382 197 0 0 0 50 203 77 2 0 0 0 0 0 0 0 0 0 0 0 0 0 0 0 0 0 0 0 0 0 0 0 0 0 0 0 0 0 0
235 251 165 161 345 166 0 0 0 0 0 268 70 10 0 0 0 4 0 0 0 0 0 0 0 0 0 0 0 0 0 0 0 0 0 0 0 0 0 0 0 0 0
47 47 7 21 151 49 0 0 0 0 0 0 68 64 0 0 0 0 0 0 0 0 0 0 0 0 0 0 0 0 0 0 0 0 0 0 0 0 0 0 0 0 0
0 1 0 0 0 22 6 0 0 0 0 0 0 0 0 0 0 0 0 0 0 0 0 0 0 0 0 0 0 0 0 0 0 0 0 0 0 6 0 0 0 0 0
0 0 0 0 0 0 1 13 0 0 0 0 0 0 0 0 0 0 0 0 0 0 0 0 0 0 0 0 0 0 0 0 0 0 0 0 0 0 0 0 0 0 0
0 0 0 0 0 0 0 2 0 0 0 0 0 0 0 0 0 0 0 0 0 0 0 0 0 0 0 0 0 0 0 0 0 0 0 0 0 0 0 0 0 0 0
0 0 0 0 0 0 0 0 0 0 0 0 0 0 0 0 0 0 0 0 0 0 0 0 0 0 0 0 0 0 0 0 0 0 0 0 0 0 0 0 0 0 0
0 0 0 0 0 0 0 0 0 0 0 0 0 0 0 0 0 0 0 0 0 0 0 0 0 0 0 0 0 0 0 0 0 0 0 0 0 0 0 0 0 0 0
49 0 0 0 0 0 0 0 0 0 0 0 0 0 0 0 0 0 0 0 0 0 0 0 0 0 0 0 0 0 0 0 0 0 0 0 0 0 0 0 0 0 0
0 191 8 0 0 0 0 0 0 0 0 0 0 0 0 0 0 0 0 0 0 0 0 0 0 0 0 0 0 0 0 0 0 0 0 0 0 0 0 0 0 0 0
0 4 219 187 0 0 0 0 0 0 0 0 0 0 0 0 0 0 0 0 0 0 0 0 0 0 0 0 0 0 0 0 0 0 0 0 0 0 0 0 0 0 0
0 0 8 192 227 0 0 0 0 0 0 0 0 0 0 0 0 0 0 0 0 0 0 0 0 0 0 0 0 0 0 0 0 0 0 0 0 0 0 0 0 0 0

GFSGL_con_sbcape_021.txt.gz
CAPE
0 0 0 0 0 0 0 0 0 0 0 0 0 0 0 0 0 0 0 0 0 2 4 18 8 0 0 0 0 0 0 0 0 1 1 21 1 1 1 1 2 1 0
0 0 0 0 0 0 0 0 0 0 0 0 0 0 4 0 0 0 2 33 2 34 2 14 34 0 0 0 0 0 0 0 0 1 1 2 2 2 1 1 5 2 1
0 0 0 0 0 0 0 0 0 0 0 0 0 7 17 0 0 2 21 3 1 7 0 0 39 0 0 1 1 1 0 0 0 0 1 4 3 1 1 4 3 0 1
0 0 0 0 0 0 0 0 0 0 0 0 22 19 13 16 14 64 37 9 2 0 9 30 19 2 0 1 1 0 0 0 1 1 1 2 3 6 2 2 7 6 5
15 8 5 1 1 0 0 0 0 0 0 23 19 0 0 0 0 10 4 3 5 0 0 10 4 0 0 0 0 1 0 2 3 2 3 3 8 9 4 5 5 9 5
72 43 14 11 0 1 0 0 0 0 11 33 4 0 0 0 1 1 13 17 15 11 1 1 0 0 0 0 0 0 0 1 4 4 5 4 4 2 4 3 2 1 0
85 63 114 1 0 20 5 0 3 8 15 16 0 0 0 0 1 1 1 4 1 5 2 2 3 0 0 0 0 0 0 0 1 1 2 1 2 1 0 1 0 0 0
99 73 35 0 0 17 18 0 1 18 23 0 0 0 0 0 1 0 3 0 2 1 1 1 1 1 0 0 0 1 0 0 2 9 7 0 0 0 0 0 0 0 0
20 21 13 0 0 0 0 0 0 0 0 0 0 0 0 0 1 1 15 2 5 3 1 1 1 0 0 0 1 1 0 0 0 0 0 0 0 0 0 0 0 0 0
15 17 6 0 0 0 0 0 0 0 0 0 0 0 0 0 1 1 0 3 1 2 4 0 0 0 0 0 0 0 0 0 0 0 0 0 0 0 0 0 0 0 0
4 8 0 0 0 0 0 0 0 0 0 0 0 0 0 0 1 1 0 0 1 1 1 1 0 0 0 0 0 0 0 0 0 0 0 0 0 0 0 0 0 0 0
0 0 0 0 0 0 0 0 0 0 0 0 0 0 0 0 0 1 0 0 0 1 1 0 1 0 0 0 0 0 0 0 0 0 0 0 0 0 0 0 0 0 0
0 0 0 0 0 0 0 0 0 0 0 0 0 0 0 0 0 1 3 0 0 0 0 0 1 2 2 2 0 0 0 0 0 0 0 0 0 0 0 0 0 0 0
0 0 0 2 0 0 0 0 0 0 0 0 0 0 0 0 1 0 1 1 0 0 1 0 0 0 0 1 1 0 0 0 0 0 0 0 0 0 0 0 0 0 0
0 0 0 0 0 0 0 0 0 0 0 0 0 0 0 0 0 0 0 0 0 0 0 0 1 0 0 0 0 0 0 0 0 0 0 0 0 0 0 0 0 0 0
0 0 0 0 0 0 0 0 0 0 0 0 0 0 0 0 0 0 0 0 0 0 0 0 1 1 1 1 1 0 0 0 0 0 0 0 0 0 0 0 0 0 0
0 0 0 0 0 0 0 0 0 0 0 0 0 0 0 0 0 0 0 0 0 0 0 0 0 0 1 1 0 0 0 0 0 0 0 0 0 0 0 0 0 0 0
0 0 0 0 0 0 0 0 0 0 0 0 0 0 0 0 0 0 0 0 0 0 0 0 0 0 0 0 0 0 0 0 0 0 0 0 0 0 0 0 0 0 0
0 0 0 0 0 0 0 0 0 0 0 0 0 0 0 1 1 1 0 0 0 0 0 0 0 0 0 0 0 0 0 0 0 0 0 0 0 0 0 0 0 0 0
0 0 0 0 0 0 0 0 0 0 0 0 0 0 0 0 0 0 0 0 0 0 0 0 0 0 0 0 0 0 0 0 0 0 0 0 0 0 0 0 0 0 0
0 0 0 0 0 0 0 0 0 0 0 0 0 0 0 0 0 0 0 0 0 0 0 0 0 0 0 0 0 0 0 0 0 0 0 0 0 0 0 0 0 0 0
0 0 0 0 0 0 0 0 0 0 0 0 0 0 0 0 0 0 0 0 0 0 0 0 0 0 0 0 0 0 0 0 0 0 0 0 0 0 0 0 0 0 0
0 0 0 0 0 0 0 0 0 0 0 0 0 0 0 0 0 0 0 0 0 0 0 0 0 0 0 0 0 0 0 0 0 0 0 0 0 0 0 0 0 0 0
0 0 0 0 0 0 0 0 0 0 0 0 0 0 0 0 0 0 0 0 0 0 0 0 0 0 0 0 0 0 0 0 0 0 0 0 0 0 0 0 0 0 0
0 0 0 0 0 0 0 0 0 0 0 0 0 0 0 0 0 0 0 0 0 0 0 0 0 0 0 0 0 0 0 0 0 0 0 0 0 0 0 0 0 0 0
0 0 0 0 0 0 0 0 0 0 0 0 0 0 0 0 0 0 0 0 0 0 0 0 0 0 0 0 0 0 0 0 0 0 0 0 0 0 0 0 0 0 0

GFSGL_con_sbcape_024.txt.gz
CAPE
0 0 0 0 0 0 0 0 0 0 0 0 0 0 0 0 0 0 0 0 0 0 0 0 11 0 0 0 1 0 0 0 0 39 27 15 1 1 2 2 2 2 0
0 0 0 0 0 0 0 0 0 0 0 0 0 0 0 0 0 0 0 15 0 0 7 9 66 2 0 0 1 2 0 0 0 51 4 3 1 2 1 1 2 2 1
0 0 0 0 0 0 0 0 0 0 0 0 0 0 2 0 0 1 7 29 0 0 3 22 60 7 1 1 4 3 2 1 38 2 3 2 2 2 3 4 2 2 2
0 0 0 0 0 0 0 0 0 0 0 0 3 2 0 0 18 63 56 19 3 0 5 23 33 6 1 8 4 3 3 7 3 3 2 1 2 5 0 2 8 9 16
0 0 0 0 0 0 0 0 0 0 0 16 13 0 0 0 0 1 3 6 3 1 26 4 6 1 0 1 2 4 6 3 2 4 4 2 2 1 1 2 2 7 2
0 1 0 0 0 0 0 0 0 0 2 24 7 0 0 0 1 1 0 28 5 6 4 1 2 0 0 0 0 0 1 2 2 1 3 4 4 5 2 2 6 6 1
1 4 76 0 0 1 0 0 0 0 27 10 0 0 0 0 1 1 1 2 9 11 3 3 2 0 0 0 0 0 0 0 0 0 2 4 7 4 4 5 5 5 1
11 21 54 0 0 17 4 0 0 16 24 4 0 0 0 0 1 1 0 9 3 2 1 1 1 1 0 0 2 1 1 0 0 2 0 2 3 5 4 2 0 3 0
5 67 17 0 0 6 0 0 0 11 7 0 0 0 0 1 1 1 0 1 3 3 2 2 2 0 0 0 1 1 1 1 0 0 0 0 0 0 0 0 0 0 1
3 20 9 0 0 0 0 0 0 0 0 0 0 0 0 0 1 1 3 4 2 1 1 0 0 0 0 0 1 1 1 2 1 0 0 0 0 0 0 0 0 0 0
1 0 0 0 0 0 0 0 0 0 0 0 0 0 0 1 0 1 0 2 2 2 2 1 0 0 0 0 0 1 1 0 0 1 0 0 0 0 0 0 0 0 0
3 0 0 0 0 0 0 0 0 0 0 0 0 0 1 2 0 1 0 0 0 1 2 0 0 0 0 0 0 0 0 0 0 0 0 0 0 0 0 0 0 0 0
0 0 0 5 0 0 0 0 0 0 0 0 0 0 1 2 1 1 2 0 0 1 0 1 1 2 2 1 1 0 0 0 0 1 1 1 0 0 0 0 0 0 0
0 0 0 6 0 0 0 0 0 0 0 0 0 0 1 2 3 2 0 1 1 0 1 0 1 1 0 0 0 0 0 0 0 0 0 0 0 0 0 0 0 0 0
0 0 0 0 0 0 0 0 0 0 0 0 0 0 0 0 1 0 0 1 1 0 0 0 1 2 2 2 1 0 0 0 0 0 0 0 0 0 0 0 0 0 0
0 0 0 0 0 0 0 0 0 0 0 0 0 0 0 0 0 1 0 0 1 0 1 2 2 2 3 2 2 1 0 0 0 0 0 0 0 0 0 0 0 0 0
0 0 0 0 0 0 0 0 0 0 0 1 1 0 0 0 3 2 3 2 2 0 1 2 1 1 2 1 2 1 0 0 0 0 0 0 0 0 0 0 0 0 0
0 0 0 0 0 0 0 0 0 0 0 0 1 0 0 3 1 2 1 1 0 0 0 1 1 1 1 0 2 1 0 0 0 0 0 0 0 0 0 0 0 0 0
0 0 0 0 0 0 0 0 0 0 0 0 0 0 1 1 1 1 0 0 1 0 0 0 0 0 0 1 0 0 2 0 0 0 0 0 0 0 0 0 0 0 0
0 0 0 0 0 0 0 0 0 0 0 0 0 0 1 1 1 1 0 0 0 0 0 0 0 0 0 2 0 0 0 0 0 0 0 0 0 0 0 0 0 0 0
0 0 0 0 0 0 0 0 0 0 0 0 0 0 0 0 0 0 0 0 0 0 0 0 0 0 0 0 0 2 2 0 0 0 0 0 0 0 0 0 0 0 0
0 0 0 0 0 0 0 0 0 0 0 0 0 0 0 0 0 0 0 0 0 0 0 0 0 0 0 0 0 0 0 0 0 0 0 0 0 0 0 0 0 0 0
0 0 0 0 0 0 0 0 0 0 0 0 0 0 0 0 0 0 0 0 0 0 0 0 0 0 0 0 0 0 0 0 0 0 0 0 0 0 0 0 0 0 0
0 0 0 0 0 0 0 0 0 0 0 0 0 0 0 0 0 0 0 0 0 0 0 0 0 0 0 0 0 0 0 0 0 0 0 0 0 0 0 0 0 0 0
0 0 2 3 0 0 0 0 0 0 0 0 0 0 0 0 0 0 0 0 0 0 0 0 0 0 0 0 0 0 0 0 0 0 0 0 0 0 0 0 0 0 0
2 3 4 3 1 2 1 0 1 0 1 1 0 0 0 0 0 0 0 0 0 0 0 0 0 0 0 0 0 0 0 0 0 0 0 0 0 0 0 0 0 0 0

GFSGL_con_sbcape_027.txt.gz
CAPE
621 580 611 533 533 624 631 556 484 389 320 198 106 113 201 385 623 821 867 677 402 699 542 605 668 676 429 416 487 366 333 722 471 206 399 203 250 641 319 170 11 6 1
530 542 502 422 422 460 415 360 213 148 116 43 50 51 120 181 392 452 447 300 234 543 497 512 570 652 775 721 651 707 409 556 429 114 9 5 10 10 5 4 3 3 1
267 261 298 327 391 414 301 190 72 51 58 76 80 45 358 367 406 426 10 52 190 556 549 591 611 801 775 572 538 383 616 510 574 23 7 7 11 3 3 3 3 3 1
168 214 259 273 254 220 122 90 69 66 65 34 176 350 449 419 473 266 216 187 90 452 524 622 624 713 557 198 215 262 512 485 111 8 6 6 4 6 2 2 4 7 2
95 138 188 195 182 106 89 101 44 28 48 438 522 380 330 261 5 69 352 179 43 329 413 573 631 365 50 99 190 168 268 41 8 6 6 6 4 5 4 2 3 2 11
98 121 176 164 123 147 102 28 93 40 316 420 297 164 213 8 0 1 7 152 107 69 96 106 68 1 0 0 0 4 6 34 7 5 6 4 5 3 8 4 4 6 1
166 205 276 245 166 75 36 6 91 281 468 109 283 21 46 57 1 1 0 57 44 34 35 29 10 4 3 2 0 0 0 0 0 4 5 7 3 4 4 3 10 28 8
253 294 294 165 123 75 65 80 229 498 185 133 145 4 91 0 1 1 2 58 26 7 7 21 13 9 16 16 15 5 4 1 4 9 9 14 7 7 0 4 18 3 2
452 416 257 93 92 47 56 253 516 249 83 130 58 6 152 2 1 1 8 13 14 6 4 2 1 0 0 4 8 4 4 3 0 0 0 0 0 0 0 0 2 6 6
574 447 175 80 123 181 225 264 506 664 124 47 11 2 1 2 1 0 12 14 9 9 6 1 0 0 0 0 7 6 2 1 1 1 1 0 0 0 0 0 0 7 6
512 432 248 196 225 204 309 296 417 437 218 118 25 35 11 3 1 1 0 13 13 7 3 3 0 1 0 0 2 5 2 2 1 4 9 9 9 8 0 8 26 16 6
409 370 338 332 50 127 298 362 385 441 324 168 80 36 6 4 1 1 0 0 0 7 5 1 0 0 0 0 1 0 0 5 14 19 12 11 8 1 13 16 10 3 0
372 413 456 303 190 251 374 419 298 415 362 112 88 20 3 5 1 1 2 0 1 10 5 0 1 2 0 0 0 0 0 9 14 11 22 33 30 31 28 14 6 1 0
543 452 115 361 278 293 329 349 288 282 237 87 82 27 9 6 3 2 0 0 0 0 0 0 0 0 0 0 1 9 74 37 28 31 30 25 21 9 5 3 2 0 0
594 574 514 456 380 464 382 174 404 273 79 156 81 46 30 2 3 1 7 4 2 0 2 5 18 6 2 13 34 39 47 30 55 35 13 9 10 6 6 3 1 0 0
598 546 509 543 463 425 266 19 0 0 0 0 0 0 0 0 1 1 0 0 0 0 8 10 15 14 10 26 55 42 22 0 17 11 6 8 9 4 0 2 3 0 0
599 592 518 435 517 529 330 392 277 0 1 1 1 0 0 0 2 2 2 1 0 0 3 7 2 4 6 6 24 15 6 3 1 1 0 1 0 0 0 5 9 6 17
533 131 589 544 570 593 367 232 340 262 320 63 0 0 2 2 2 2 0 1 1 4 14 7 19 28 18 11 7 14 15 1 0 0 0 0 0 0 0 3 4 3 20
249 208 408 551 590 457 364 62 153 62 14 200 0 0 0 1 1 1 0 7 6 8 10 9 12 14 15 12 14 5 11 4 0 0 0 0 0 0 0 0 0 0 0
161 17 167 498 493 502 387 247 26 24 4 18 303 175 1 1 2 2 0 28 11 6 6 6 9 10 10 8 10 8 5 6 4 5 2 1 0 0 0 0 0 0 0
82 90 98 342 432 474 472 455 269 28 8 32 129 104 0 64 47 0 0 30 50 46 27 3 7 7 11 15 12 4 4 2 5 3 4 4 5 3 2 1 1 2 1
0 75 96 221 330 389 463 477 470 355 212 132 61 3 1 13 327 225 81 70 87 90 50 49 39 27 18 7 2 15 13 27 50 22 15 18 14 13 11 7 0 0 1
0 0 26 70 137 35 213 368 467 489 451 360 229 14 0 3 222 322 330 281 200 139 119 84 62 40 23 18 11 14 9 7 23 60 79 79 53 22 4 0 0 0 25
1 0 0 0 0 13 31 84 116 14 156 327 357 207 14 0 9 50 166 242 261 242 216 175 140 109 84 53 15 3 0 0 0 0 0 6 18 9 3 0 0 12 56
7 8 3 2 2 21 86 112 29 1 0 0 0 3 30 26 0 0 0 0 27 98 98 113 143 141 161 147 103 41 0 0 0 0 0 0 0 0 0 0 0 20 59
6 7 5 2 5 5 6 4 3 4 6 7 5 6 2 1 0 1 0 0 0 0 0 1 13 14 20 34 64 11 0 0 0 0 0 11 20 8 4 13 0 8 11

GFSGL_con_sbcape_030.txt.gz
CAPE
1892 1941 1898 1840 1726 1621 1582 1554 1509 1439 1236 898 626 511 347 419 625 958 959 834 767 953 776 754 771 844 595 389 351 900 1276 1078 829 879 898 722 850 1143 1118 894 496 301 2
1765 1739 1642 1469 1403 1417 1362 1289 1038 805 521 320 203 132 197 486 722 738 700 593 567 548 709 571 584 745 766 757 1285 924 917 1347 1190 679 47 14 361 682 537 198 151 25 7
1546 1478 1419 1377 1352 1250 1027 762 521 405 226 131 189 257 221 393 615 776 629 567 174 480 662 627 528 746 995 1042 1202 1149 1018 1256 1173 171 12 9 10 9 9 8 5 4 5
1002 1025 1080 1083 1028 892 625 394 245 160 231 250 223 164 314 499 605 759 458 710 740 651 690 701 643 796 882 989 1070 1056 1106 1208 655 49 8 12 5 9 4 2 3 4 2
375 410 529 583 549 426 314 266 240 144 114 221 326 365 531 697 250 628 594 727 260 596 751 729 759 471 459 721 936 1017 992 669 102 9 8 10 6 4 3 5 6 6 5
135 264 312 303 340 410 449 402 174 243 398 404 461 330 530 175 1 1 0 288 639 604 711 624 688 130 1 0 0 290 588 639 231 11 7 6 7 2 3 4 5 3 7
223 288 308 264 281 327 184 226 181 471 453 601 505 283 530 613 1 0 0 100 200 255 196 239 209 58 51 27 0 0 0 0 31 45 8 8 13 13 6 8 5 3 10
226 273 296 123 123 116 33 136 425 393 682 734 544 545 717 46 0 1 4 126 37 32 102 146 169 69 43 52 46 40 16 30 15 11 10 12 7 7 16 3 15 2 8
238 332 155 101 98 156 48 325 482 636 765 623 507 608 686 183 0 0 15 40 11 4 2 29 55 47 1 3 51 15 9 2 0 0 0 0 0 1 0 5 6 3 5
272 206 136 114 32 55 130 270 457 628 579 338 515 643 57 112 1 0 10 30 10 8 13 6 0 0 0 1 19 15 7 6 1 0 0 0 0 0 0 0 0 3 10
328 225 213 217 153 205 306 391 273 424 326 507 488 590 176 81 1 0 2 18 9 6 4 4 0 0 0 0 7 15 6 7 1 4 6 4 2 1 5 6 6 23 23
161 249 347 434 276 293 371 468 407 471 562 656 552 394 64 50 0 0 0 2 0 12 6 4 0 1 0 0 2 0 0 2 7 8 10 9 8 18 29 87 132 93 75
251 389 514 472 321 477 694 852 896 880 628 647 432 251 54 5 0 2 0 0 0 7 5 1 1 0 0 0 0 0 1 8 8 12 17 20 15 32 80 72 106 49 0
457 517 785 696 595 613 717 737 995 1017 780 572 374 243 86 7 5 2 0 1 0 0 0 0 0 1 3 0 0 0 52 38 21 47 55 56 66 79 70 66 42 16 10
565 736 790 697 756 735 765 503 888 765 354 570 453 203 134 9 9 4 6 3 13 7 17 17 27 17 18 20 19 36 109 67 74 74 71 67 62 64 55 28 16 1 0
660 582 498 716 715 518 607 307 1 0 1 0 0 18 46 1 0 0 0 0 0 0 26 43 59 48 41 79 81 92 104 46 89 83 77 62 33 17 13 6 2 0 0
454 565 478 442 587 226 707 661 483 0 2 0 1 0 0 0 2 2 0 0 0 0 9 42 32 28 29 34 56 63 79 87 98 99 73 54 40 37 4 2 0 0 0
506 404 296 351 546 243 175 445 421 612 367 35 0 0 0 2 2 1 2 0 1 4 10 16 43 56 73 89 91 84 67 67 57 56 41 26 16 8 0 0 0 0 0
522 372 391 394 486 374 43 267 280 374 639 369 0 0 0 0 0 1 0 5 13 24 39 29 30 35 64 74 75 67 67 70 45 20 11 6 5 4 0 0 0 0 0
450 108 245 518 649 598 371 18 216 255 340 642 462 37 0 0 1 4 7 10 25 37 25 22 12 15 38 91 113 95 123 92 58 49 17 7 1 0 1 2 2 1 0
167 400 139 505 504 538 490 291 37 22 72 174 557 214 0 218 194 35 66 249 163 142 128 204 203 188 126 81 75 117 64 126 123 95 127 98 41 21 13 7 8 9 9
123 223 188 157 283 451 508 551 491 201 71 45 171 48 0 35 376 308 263 282 344 344 304 232 157 98 174 218 234 256 174 91 110 194 206 205 207 205 190 193 182 169 153
87 191 237 196 295 121 532 528 563 570 399 226 241 142 59 348 503 550 671 637 556 442 315 277 330 300 253 201 128 126 194 270 313 305 332 324 295 272 277 290 264 233 184
100 128 163 258 400 507 607 720 714 147 612 639 594 350 236 278 414 480 600 730 785 782 716 611 548 404 269 242 265 281 278 247 120 40 180 310 341 279 274 258 182 113 83
7 7 3 8 3 0 32 74 168 276 221 327 464 545 641 592 461 336 308 302 347 474 575 624 647 602 602 556 527 378 121 0 42 3 168 152 123 117 59 54 63 49 79
2 5 10 7 6 6 5 4 6 6 6 4 2 1 0 0 0 1 1 0 0 93 138 186 216 216 157 0 0 0 0 1 0 0 0 43 93 136 144 130 94 64 67

GFSGL_con_sbcape_033.txt.gz
CAPE
2534 2539 2539 2302 2270 2324 2140 2186 1972 2125 1560 1318 1198 1110 955 720 615 825 862 706 720 1066 1056 837 815 1007 723 449 478 920 483 641 738 296 954 1274 1270 1454 1140 916 312 430 1
2223 2128 2122 2322 2200 2358 1684 1509 1329 1268 1116 906 710 531 329 308 621 760 758 661 729 809 877 900 550 720 829 1274 1213 1180 940 1360 566 723 573 469 1026 1108 817 576 282 88 6
2011 1891 1880 1920 1793 2093 1378 1223 999 767 504 342 211 174 206 378 639 795 715 728 780 559 721 893 463 774 1176 1206 935 1335 1437 1445 1294 794 30 9 274 178 9 14 9 4 4
1494 1524 1621 1775 1647 1203 979 792 526 324 210 216 238 202 164 252 497 716 710 523 697 330 1067 1009 441 751 1031 1083 1266 1181 1366 1399 920 106 8 6 4 7 5 1 2 2 4
977 1028 1095 1042 916 672 503 376 262 252 222 181 227 491 378 720 349 787 788 698 651 719 875 708 820 531 436 543 1293 1494 1383 1215 279 9 7 7 4 5 2 5 3 2 2
430 378 308 290 223 297 331 697 305 140 556 709 678 491 780 172 1 0 86 665 360 457 705 722 748 240 33 0 0 380 822 936 184 4 8 5 8 4 4 4 3 1 3
209 219 248 289 297 480 441 483 192 946 968 972 808 391 826 71 1 1 0 440 599 619 716 833 680 367 264 259 5 9 0 39 96 147 7 6 5 5 3 3 3 5 5
215 180 144 106 199 278 380 167 1077 1039 798 801 555 787 890 0 1 0 0 243 239 298 294 510 569 261 207 163 330 414 226 216 149 28 10 7 7 8 2 2 4 5 10
203 148 122 122 124 83 92 387 1055 677 757 771 696 759 814 23 1 0 35 44 9 10 81 131 191 65 0 4 131 84 7 0 0 0 1 0 0 0 0 4 3 3 3
198 145 147 137 146 178 292 772 858 525 596 502 695 746 142 45 1 0 19 7 6 4 2 0 0 0 0 0 4 6 4 3 0 1 0 0 0 0 0 1 0 4 1
200 194 138 136 147 554 955 1087 843 372 580 868 701 668 290 93 0 0 2 8 9 12 1 3 4 0 0 0 4 19 4 6 3 7 5 2 0 0 0 3 0 0 0
258 131 314 398 44 370 597 440 379 956 724 739 723 381 198 18 0 0 0 1 0 10 9 4 0 0 0 0 0 0 0 3 6 4 3 2 5 2 0 0 0 37 78
344 486 457 412 525 498 744 696 655 649 452 595 742 373 79 7 0 1 0 0 0 18 8 1 1 0 0 0 0 0 1 6 6 7 5 2 0 0 1 38 54 98 128
252 493 657 624 733 882 652 1090 1196 1344 1080 880 761 504 83 7 4 5 1 0 0 0 0 0 0 0 0 0 0 1 6 8 8 7 4 1 0 5 76 112 130 72 23
432 535 608 88 821 1007 614 548 1186 353 385 797 838 580 109 20 4 2 11 17 17 2 4 8 19 11 9 4 1 1 14 1 16 8 18 29 58 66 58 61 41 1 8
304 544 212 312 371 610 547 207 0 0 2 1 0 88 35 0 0 0 0 0 0 0 28 78 47 22 17 34 62 69 90 31 75 65 64 62 67 62 63 57 31 3 0
945 613 284 281 566 454 461 426 159 0 2 3 1 0 0 0 0 0 0 0 0 0 66 66 33 36 71 38 59 91 77 113 101 74 68 78 95 59 26 17 4 0 0
848 43 258 364 122 759 785 482 439 198 151 0 0 0 0 2 2 0 0 0 2 3 48 49 57 73 90 103 89 78 113 81 89 63 46 70 73 31 13 7 1 1 0
260 197 262 461 381 198 419 513 605 627 302 9 0 0 0 0 1 0 0 10 13 35 20 42 65 61 69 85 109 46 46 50 47 51 70 63 54 41 26 4 1 0 0
217 66 147 503 298 167 391 195 429 669 513 171 197 21 0 1 2 2 1 13 22 27 24 20 28 14 100 108 89 107 119 83 38 47 42 29 19 7 2 0 0 0 0
314 175 241 413 180 315 98 101 292 392 486 338 346 83 0 117 16 13 20 11 13 81 108 111 75 82 104 148 125 98 142 78 97 64 59 39 28 16 6 3 4 3 0
232 39 106 303 242 337 318 219 61 45 96 459 291 5 0 6 329 298 214 167 133 174 226 352 164 160 119 153 197 209 221 208 249 207 160 140 134 130 118 90 76 127 136
229 139 46 162 358 232 277 385 353 199 132 131 433 169 106 376 402 285 245 263 336 374 296 455 315 303 145 91 175 286 403 387 386 301 336 381 385 359 412 432 353 449 482
63 285 345 440 240 242 155 487 636 364 126 94 514 262 219 197 244 718 758 728 879 446 390 390 305 220 200 195 54 44 31 25 207 223 428 439 430 405 422 355 334 413 509
3 1 0 0 0 0 0 0 0 0 0 0 0 0 0 0 0 0 0 0 0 0 0 0 0 0 0 0 0 0 0 0 0 0 113 291 333 499 234 242 332 456 389
0 4 6 6 5 3 3 2 1 1 0 0 0 0 0 0 0 0 0 0 0 0 0 0 0 0 0 0 0 0 0 0 0 0 0 29 196 208 152 243 200 211 176

GFSGL_con_sbcape_036.txt.gz
CAPE
2421 2612 2986 3044 2841 2923 2631 2373 2446 2307 2130 1908 1767 1581 1422 1418 1426 1322 1246 975 991 991 883 549 873 878 699 557 221 356 101 115 135 89 174 78 120 231 382 39 174 0 0
2210 2003 1946 1846 1788 1961 1924 1777 1882 1965 1846 1612 1428 1112 988 954 1156 1175 955 788 764 927 805 630 732 820 702 491 465 191 142 142 89 113 171 198 192 445 512 287 107 2 1
1929 2047 1911 1694 1386 1281 1277 1751 1751 1745 1599 962 877 768 537 647 744 1146 992 803 701 671 553 398 656 689 497 456 623 270 232 290 100 97 52 26 96 60 27 7 1 1 1
1607 1442 1506 1396 1361 1333 1536 1517 1258 1029 872 732 679 434 601 635 831 834 605 620 692 337 525 381 472 647 555 637 515 575 435 206 183 8 3 1 4 2 1 1 1 1 1
1373 1222 1341 1230 1176 1278 1147 1025 917 747 619 470 730 513 851 84 200 734 1054 933 580 271 471 516 296 345 334 466 966 778 516 298 11 0 2 1 0 1 2 2 1 1 1
1512 1505 1214 1124 934 1007 880 386 883 872 807 356 541 620 636 0 1 0 200 797 482 471 246 423 37 0 0 1 15 560 451 83 0 0 0 1 1 1 1 1 1 0 1
689 561 533 528 496 321 372 368 897 1003 748 548 488 649 408 0 1 0 0 491 833 415 583 364 481 162 179 9 0 3 57 17 0 0 1 3 1 1 0 1 1 0 1
310 166 353 313 310 339 326 514 979 933 1060 997 895 677 80 0 1 0 57 388 650 543 575 405 497 447 347 245 423 294 50 1 1 2 0 0 0 0 0 0 0 1 1
327 201 264 273 251 219 404 673 983 793 728 842 863 884 80 0 1 0 32 30 94 91 2 2 172 38 0 6 125 0 0 0 0 0 0 0 0 0 0 0 1 1 2
288 182 216 147 179 397 404 826 886 816 931 810 673 586 0 1 2 0 0 0 0 0 3 0 2 0 0 3 1 0 0 0 0 0 0 1 0 0 0 0 0 0 0
108 168 126 133 178 340 580 821 723 913 751 719 748 469 112 7 0 0 0 13 8 6 0 0 0 0 0 0 0 0 0 0 0 1 0 0 0 0 0 0 0 0 0
41 47 340 478 229 493 736 986 772 1022 842 639 390 200 35 1 0 0 0 2 1 3 2 0 0 0 0 0 0 0 0 0 1 1 1 1 1 0 0 0 0 0 0
239 307 245 124 218 731 867 922 532 922 792 739 399 146 8 1 0 0 0 0 0 7 0 1 1 0 0 0 0 0 0 0 1 1 1 1 0 0 0 0 0 0 2
491 370 299 522 615 633 857 819 1050 1083 1159 907 511 310 3 2 5 0 0 0 0 0 1 0 0 0 0 0 0 0 1 1 1 1 1 0 0 0 0 0 0 10 23
522 409 331 549 418 23 3 3 176 2 386 729 668 173 4 4 2 1 2 14 6 1 0 1 2 1 1 0 3 3 2 2 1 1 1 1 0 0 4 0 11 14 6
366 553 407 422 951 439 91 0 0 0 2 0 0 195 7 0 0 0 0 0 0 0 13 4 6 3 1 0 2 15 2 4 1 0 0 0 0 1 13 13 14 0 0
414 749 136 432 486 459 349 56 0 0 1 2 0 0 0 0 0 0 0 0 0 0 70 10 0 0 6 5 0 14 3 8 9 3 5 11 10 12 0 0 0 0 0
319 74 227 590 588 312 440 200 132 85 2 0 1 0 2 2 0 0 0 0 0 0 38 14 14 30 32 53 33 35 11 11 24 9 17 17 34 37 25 19 2 0 0
198 143 84 699 630 303 547 461 363 264 2 0 2 0 0 1 1 0 0 4 15 24 10 41 43 43 44 57 34 51 67 61 40 42 42 40 42 34 18 1 0 0 0
57 80 120 621 491 528 411 561 516 320 9 11 2 0 1 0 0 0 0 12 10 65 42 28 61 54 31 37 42 30 27 20 33 44 32 26 24 30 19 13 1 0 0
186 6 116 47 363 681 622 605 758 621 299 413 36 0 0 4 0 0 0 7 28 55 58 95 76 69 60 69 104 54 52 38 30 47 28 48 24 3 0 0 3 0 0
144 320 268 228 108 243 574 519 886 684 419 291 184 0 0 35 8 9 8 36 58 119 261 132 95 49 91 48 41 35 40 47 19 20 36 81 101 53 17 9 0 0 0
66 170 166 129 454 260 88 146 28 648 536 144 167 2 0 15 56 63 261 133 23 16 2 1 94 14 0 0 0 0 0 0 7 81 213 148 66 89 117 126 129 165 195
0 77 343 12 87 216 3 20 7 0 147 103 172 103 6 0 0 0 0 0 0 0 0 0 0 0 0 0 0 0 0 0 0 0 1 375 399 397 381 413 368 337 313
1 0 0 0 0 0 0 0 0 0 0 0 0 0 0 0 0 0 0 0 0 0 0 0 0 0 0 0 0 0 0 0 0 0 0 9 106 264 285 300 335 262 176
0 1 3 5 3 1 0 1 0 0 1 0 1 1 0 0 1 0 0 0 0 0 0 0 0 0 0 0 0 0 0 0 0 0 0 0 0 0 0 0 0 9 32

GFSGL_con_sbcape_039.txt.gz
CAPE
1582 1628 1939 1976 1720 1225 914 1006 1020 1005 950 1043 1286 1152 1025 761 570 372 362 166 249 220 107 132 200 281 89 19 0 0 0 0 0 0 0 22 41 13 16 3 0 0 0
1777 1904 1862 1721 1780 1639 1434 1712 1408 1254 1148 1121 1050 918 696 620 501 171 225 353 248 96 133 144 60 429 126 18 0 0 0 0 0 0 9 21 37 23 17 4 1 1 1
1708 1509 1308 1542 1451 1296 1365 1335 1284 1036 958 943 651 438 370 303 271 300 193 203 158 208 185 187 54 106 67 0 0 0 0 0 4 44 24 52 25 1 1 0 1 1 1
1520 1224 973 962 994 944 911 784 583 378 258 82 109 134 146 268 411 543 356 239 140 124 156 94 97 161 58 9 10 3 19 1 0 2 17 3 0 1 1 1 1 1 1
1290 1068 907 850 797 619 339 172 37 18 2 8 161 109 26 41 54 386 298 226 105 51 52 114 56 65 93 33 57 42 29 25 0 0 0 1 1 1 1 1 1 1 1
1029 866 783 712 521 254 159 95 1 7 18 108 167 11 0 0 1 0 130 124 127 37 6 17 0 0 0 3 67 90 38 4 3 0 0 0 1 1 1 1 0 0 0
806 768 694 468 295 100 7 11 65 42 127 231 184 7 0 0 1 0 113 40 7 6 36 18 52 8 0 0 0 28 0 0 0 0 0 0 0 1 0 1 0 0 0
591 373 266 68 10 3 38 144 217 145 150 279 20 0 0 0 1 0 112 60 45 9 17 90 51 0 0 0 0 0 0 0 0 0 0 0 0 0 0 0 0 0 0
66 87 73 26 9 16 134 202 86 57 76 69 0 0 0 1 1 0 1 6 8 0 0 6 0 0 0 1 0 0 0 0 0 0 0 0 0 0 0 0 0 0 1
0 41 15 11 19 91 78 87 58 48 89 113 9 0 0 0 1 0 0 0 1 3 0 0 0 0 0 0 0 0 0 0 0 0 0 1 0 0 0 0 0 0 0
0 17 8 8 44 98 169 54 54 45 27 14 0 0 0 0 1 0 0 0 0 0 0 0 0 0 0 0 0 0 0 0 0 1 1 0 0 0 0 0 0 0 0
15 8 1 28 116 126 90 126 20 8 12 10 0 1 1 0 1 1 0 0 0 0 0 0 1 0 0 0 0 0 0 0 0 1 1 1 2 0 0 0 0 0 0
15 14 14 28 66 94 30 60 9 7 33 4 2 0 1 0 0 2 0 0 0 0 0 1 2 2 2 1 1 0 0 0 0 1 1 0 0 0 0 0 0 0 0
13 2 4 39 103 12 26 28 9 3 28 34 1 1 1 1 0 0 0 0 1 0 1 0 0 0 0 0 0 0 0 0 0 0 0 0 0 0 0 0 0 0 0
9 23 96 89 0 1 2 1 0 1 13 57 15 0 1 2 0 0 0 1 0 0 0 0 0 0 1 0 1 0 0 0 0 0 0 0 0 0 0 0 0 0 0
12 22 88 34 0 0 0 0 1 0 1 0 10 0 0 0 0 0 0 0 0 0 0 1 1 1 1 0 2 2 0 0 0 0 0 0 0 0 0 0 0 0 0
11 45 61 131 5 0 0 0 0 0 1 1 0 0 0 0 0 0 0 0 0 0 0 0 1 0 0 0 0 0 0 0 0 0 0 0 0 2 0 0 0 0 0
76 47 85 196 166 4 0 0 0 0 0 0 0 0 2 0 0 1 2 1 0 0 0 0 0 0 0 0 0 0 0 0 0 0 0 0 0 0 0 0 0 0 0
42 101 58 97 67 23 0 0 0 0 0 0 0 0 0 1 1 2 0 0 0 0 0 0 0 2 2 12 9 3 0 0 0 0 3 6 0 1 0 0 0 0 0
7 46 26 28 143 21 29 0 0 0 0 0 1 0 0 0 0 0 0 0 0 0 0 4 5 1 5 2 4 8 4 0 11 17 14 24 16 17 22 3 0 0 0
0 4 60 94 79 245 105 8 0 0 0 0 0 0 0 0 0 0 0 0 0 15 9 1 0 6 5 21 30 10 18 21 31 34 34 32 17 3 4 0 0 0 0
32 38 8 78 232 136 120 147 16 10 8 0 0 1 0 0 0 0 0 0 0 0 0 0 0 0 0 0 0 2 10 11 14 20 15 5 7 2 2 3 1 0 0
17 24 34 11 3 2 0 48 25 52 13 0 0 0 0 1 0 0 0 0 0 0 0 0 0 0 0 0 0 0 0 0 0 0 1 17 21 32 6 7 20 3 0
0 0 0 0 0 0 0 0 0 2 29 0 0 0 0 0 0 0 0 0 0 0 0 0 0 0 0 0 0 0 0 0 0 0 0 4 3 4 12 21 13 30 10
0 0 0 0 0 0 0 0 0 0 0 0 0 0 0 0 0 0 0 0 0 0 0 0 0 0 0 0 0 0 0 0 0 0 0 0 0 0 0 0 0 0 0
1 1 0 0 1 0 0 0 0 0 0 0 0 0 0 0 0 0 0 0 0 0 0 0 0 0 0 0 0 0 0 0 0 0 0 0 0 0 0 0 0 0 0

GFSGL_con_sbcape_042.txt.gz
CAPE
301 482 720 856 829 698 717 621 579 480 475 490 521 666 721 650 413 406 327 214 179 11 0 0 0 0 0 0 0 0 0 0 0 0 0 0 4 10 0 1 0 0 0
667 1053 1180 1332 876 687 601 632 568 451 473 677 774 798 754 545 278 249 151 95 55 14 0 0 0 41 16 0 0 0 0 0 0 0 3 14 5 0 1 1 1 1 0
1458 1426 1503 1356 1165 895 1034 980 770 663 644 759 695 639 595 527 264 61 79 50 38 0 0 0 0 30 34 0 0 0 0 0 0 0 1 15 1 1 1 1 1 1 1
1573 1539 1517 1419 1262 1105 1313 1139 879 771 723 522 494 444 376 243 62 26 0 0 0 0 0 15 19 40 1 0 0 0 0 0 0 12 11 1 1 1 0 1 0 1 1
1290 1288 1091 1001 866 723 661 475 387 317 278 21 0 2 18 45 40 168 78 0 0 0 0 2 33 78 5 0 0 0 0 0 1 8 1 1 1 1 0 0 0 1 1
1062 994 865 707 514 220 39 0 0 0 0 0 0 0 0 0 1 0 0 0 0 0 0 0 0 0 0 1 6 0 1 0 1 0 0 1 1 1 1 1 0 0 0
770 785 609 373 222 68 0 0 0 0 0 0 0 0 0 0 0 0 0 0 0 0 0 0 14 1 0 0 1 0 0 0 0 0 0 0 0 0 1 1 1 0 0
688 578 388 212 74 0 0 0 0 14 8 4 0 0 0 1 0 0 0 0 0 0 0 13 16 3 0 0 0 0 0 0 0 0 0 0 0 0 0 0 0 0 0
372 348 138 6 0 16 50 17 31 52 5 0 0 0 0 0 1 0 0 0 0 1 1 15 5 0 0 0 0 0 0 0 0 0 0 0 0 0 0 0 0 0 0
36 2 1 5 23 45 46 25 8 0 0 0 0 0 1 0 2 0 0 0 0 0 0 0 0 0 0 0 0 0 0 0 0 0 0 1 0 0 0 0 0 0 0
0 0 3 11 18 32 20 7 0 3 0 0 0 0 0 0 1 0 0 0 0 0 0 0 0 0 0 0 0 0 0 0 0 0 1 1 0 0 0 0 0 0 0
0 0 0 9 33 28 9 1 0 0 0 0 0 1 0 0 0 1 0 0 0 0 0 0 1 0 0 0 0 0 0 0 1 1 1 1 1 1 0 0 0 0 0
8 1 3 31 44 20 18 0 0 0 0 0 0 0 1 0 0 2 2 0 0 0 0 1 2 2 2 1 2 0 0 0 1 1 1 1 0 0 0 0 0 0 0
12 3 1 16 10 7 7 2 0 0 0 0 0 1 1 1 0 0 0 0 0 0 1 0 0 0 0 0 0 0 0 0 0 0 0 0 0 0 0 0 0 0 0
5 1 11 0 0 0 1 0 0 0 0 0 0 0 1 1 0 0 0 0 1 0 0 0 0 0 1 1 0 0 0 0 0 0 0 0 0 0 0 0 0 0 0
0 28 10 0 0 0 0 1 1 0 1 1 0 0 0 0 0 0 0 0 0 0 0 0 1 1 1 1 1 1 0 0 0 0 0 0 0 0 0 0 0 0 0
0 2 0 3 0 0 0 0 0 0 1 2 0 0 0 0 0 0 3 2 1 0 0 1 1 1 0 1 1 0 0 0 0 0 0 0 0 0 0 0 0 0 0
3 16 0 0 0 0 0 0 0 0 0 1 1 1 2 0 0 2 1 0 0 0 0 0 0 0 0 0 0 0 0 0 0 0 0 0 0 1 0 0 0 0 0
0 2 8 2 0 0 0 0 0 0 0 0 0 0 0 1 1 1 0 0 0 0 0 0 0 0 0 0 0 0 0 0 0 0 0 0 0 0 0 0 0 0 0
0 3 3 0 0 0 0 0 0 1 1 1 1 0 0 0 0 0 0 0 0 0 0 0 0 1 8 1 0 0 0 0 0 0 0 8 3 0 0 4 0 0 0
0 0 0 26 0 0 0 0 0 0 0 0 1 0 0 0 0 0 0 0 0 0 0 0 0 0 0 1 13 5 9 10 15 22 23 19 26 15 19 13 23 4 0
0 0 1 15 40 14 0 0 1 0 2 1 1 0 0 0 0 0 0 0 0 0 0 0 0 0 0 0 0 3 17 16 9 4 19 13 12 12 9 5 5 0 0
0 0 0 2 5 1 3 0 0 0 0 0 0 0 0 0 0 0 0 0 0 0 0 0 0 0 0 1 1 0 0 0 0 0 0 1 1 2 3 8 8 4 3
0 0 0 0 0 0 0 0 0 0 0 0 0 0 0 0 0 0 0 1 0 0 0 0 0 0 0 0 0 0 0 0 0 0 0 0 0 0 0 0 0 0 0
0 0 0 0 0 0 0 0 0 0 0 0 0 0 0 0 0 0 0 0 0 0 0 0 0 0 0 0 0 0 0 0 0 0 0 0 0 0 0 0 0 0 0
0 0 0 0 0 0 1 1 0 0 0 0 0 0 0 0 0 0 0 0 0 0 0 0 0 0 0 0 0 0 0 0 0 0 0 0 0 0 0 0 0 0 0

GFSGL_con_sbcape_045.txt.gz
CAPE
0 0 0 0 0 63 293 312 316 295 302 350 351 350 523 554 493 372 206 139 134 12 0 0 0 0 0 0 0 0 0 0 0 0 0 0 2 3 1 1 0 0 0
0 2 67 182 270 372 423 350 249 275 329 404 520 589 582 456 268 198 137 109 36 8 0 0 0 0 0 0 0 0 0 0 0 0 0 0 0 2 1 1 1 1 0
246 460 811 697 588 481 450 417 433 479 612 622 548 634 512 267 150 117 93 30 3 0 0 0 0 0 0 0 0 0 0 0 0 0 1 3 1 0 1 1 1 1 1
922 1133 1099 977 836 734 760 683 585 557 557 554 537 448 427 265 145 49 9 0 0 0 0 0 0 0 11 0 0 0 0 0 0 0 1 2 1 1 0 1 1 1 1
1349 1381 1382 1117 1004 1221 1035 802 677 654 584 470 282 197 150 88 16 0 0 0 0 0 0 0 0 4 8 0 0 0 0 0 0 1 1 1 1 1 1 1 1 1 1
1303 1187 1047 1000 1009 1037 885 586 436 87 82 37 0 0 0 0 1 0 0 0 0 0 0 0 0 0 0 0 0 0 0 0 0 0 0 2 0 1 1 1 0 0 0
890 799 613 507 356 301 163 89 31 0 0 0 0 0 0 0 0 2 0 0 0 0 0 0 0 0 0 0 1 0 0 0 0 0 0 0 0 0 0 1 0 0 0
694 510 391 234 40 15 4 0 0 0 0 0 0 0 0 1 0 1 0 0 0 0 0 0 0 0 0 0 0 0 0 0 0 0 0 0 0 0 0 0 0 0 0
406 314 234 64 14 0 0 0 0 0 0 0 0 0 0 0 1 2 0 0 0 1 0 0 2 6 1 0 0 0 0 0 1 0 0 0 0 0 0 0 0 1 0
203 161 16 20 0 0 0 0 0 0 0 0 0 0 0 0 1 1 0 0 0 0 1 1 0 1 2 0 0 0 0 0 0 0 0 1 0 0 0 0 0 1 0
38 1 0 0 0 0 0 7 7 0 0 0 0 0 0 0 0 2 0 0 0 0 0 0 1 2 0 0 0 0 0 0 0 0 0 1 0 0 0 0 0 0 0
0 0 0 1 8 11 13 10 2 0 0 0 1 1 1 0 1 1 0 0 0 0 0 1 1 1 1 0 0 1 0 0 1 1 1 1 1 1 0 0 0 0 0
0 0 8 18 16 11 9 1 1 0 0 1 0 3 1 0 0 2 0 0 0 0 0 1 2 2 0 1 2 0 0 0 1 1 1 1 0 0 0 0 0 0 0
0 4 19 25 14 9 9 1 0 0 0 1 0 1 1 0 0 0 0 0 1 0 0 1 1 1 0 0 1 0 0 0 0 1 1 1 0 0 0 0 0 0 0
0 0 11 2 0 0 1 1 0 0 0 0 0 0 1 0 0 0 0 0 0 0 0 0 0 0 1 1 1 0 0 0 0 0 0 0 0 0 0 0 0 0 0
0 0 0 0 0 0 0 0 1 1 1 0 0 0 0 0 0 0 0 0 0 0 0 0 1 1 1 1 1 1 0 0 0 0 0 0 0 0 0 0 0 0 0
0 0 0 0 0 0 0 0 0 0 1 2 0 0 0 0 2 2 2 2 1 0 1 1 1 1 1 1 0 0 0 0 0 0 0 0 0 0 0 0 0 0 0
0 0 0 0 0 0 0 0 1 1 0 1 0 1 2 2 2 2 1 0 0 0 0 0 0 0 0 0 0 0 0 0 0 0 0 0 0 0 0 0 0 0 0
0 0 0 0 0 0 0 1 0 1 1 0 0 0 0 1 1 1 1 0 0 0 0 0 0 0 0 0 0 0 0 0 0 0 0 0 0 0 0 0 0 0 0
0 0 0 0 0 0 0 0 0 0 1 1 1 1 1 0 0 0 0 0 0 0 0 0 0 0 0 0 0 0 0 0 0 0 0 0 1 0 0 0 0 0 0
0 0 0 0 0 0 0 1 1 1 1 1 1 0 0 0 0 0 0 1 1 1 0 0 0 0 2 0 1 2 0 0 0 0 0 3 9 8 5 8 11 6 0
0 0 0 0 0 0 0 0 1 1 1 1 0 1 0 0 0 0 0 0 1 1 1 0 2 2 0 0 0 0 9 5 9 7 12 22 15 9 9 9 9 10 1
0 0 0 0 0 0 0 0 1 2 2 2 1 0 1 1 1 1 0 0 0 1 0 0 0 3 0 0 0 0 0 0 0 0 0 0 0 0 0 0 5 3 0
0 0 0 0 0 0 0 0 0 0 0 0 0 0 0 0 0 0 0 0 0 0 0 0 0 0 0 0 0 1 1 0 0 0 0 1 3 0 1 0 0 0 0
0 0 0 0 0 0 0 1 0 0 0 0 0 0 0 0 0 0 0 0 0 0 0 0 0 0 0 0 0 0 0 0 0 0 0 0 0 0 0 0 0 0 0
0 0 0 0 0 0 0 0 0 0 0 0 0 0 0 0 0 0 0 0 0 0 0 0 0 0 0 0 0 0 0 0 0 0 0 0 0 0 0 0 0 0 0

GFSGL_con_sbcape_048.txt.gz
CAPE
0 0 0 0 0 0 0 0 11 101 275 400 523 573 604 534 391 355 381 182 73 75 5 5 0 0 0 0 0 0 0 0 0 3 5 16 11 22 15 4 2 3 1
0 0 0 0 0 0 0 15 160 347 410 533 566 616 623 552 376 376 238 137 181 26 7 0 0 0 0 0 0 0 0 0 0 2 5 8 2 3 8 1 3 2 2
0 0 0 0 1 28 151 241 391 412 484 607 689 846 737 561 511 280 223 120 49 19 5 0 0 0 0 0 0 0 0 0 0 1 7 4 8 3 2 1 6 4 3
3 7 51 159 230 349 435 538 558 694 751 776 873 741 587 350 240 189 126 49 6 2 0 0 0 0 0 0 0 0 0 0 2 5 6 6 6 3 4 2 2 4 5
381 517 566 572 579 729 716 734 788 870 873 752 619 629 449 318 184 123 0 0 0 0 0 0 0 0 0 0 0 0 0 2 2 6 3 6 5 4 3 5 7 5 6
909 962 993 929 1069 962 795 781 767 564 556 473 451 430 328 0 0 0 0 0 0 0 0 0 0 0 0 0 0 0 0 2 1 3 3 1 2 3 4 4 5 2 7
1153 1038 1103 1208 1034 981 748 573 360 313 369 190 38 13 0 0 0 1 0 0 0 0 0 0 0 0 0 0 0 0 0 0 0 0 14 3 0 1 3 11 5 4 6
1083 989 874 815 773 564 437 265 101 7 0 0 0 0 1 1 1 1 0 0 0 0 0 0 0 0 0 0 0 0 0 0 0 0 1 1 0 0 0 9 2 3 1
706 602 429 308 275 229 147 34 0 0 0 0 0 0 1 2 1 1 0 0 0 0 0 0 0 0 1 1 0 0 2 2 1 0 0 0 0 0 0 1 5 0 3
503 300 215 156 179 112 6 0 0 0 1 1 0 1 0 1 1 2 0 1 0 2 3 3 0 0 2 0 2 0 2 3 2 1 1 0 0 0 0 6 3 1 1
269 119 76 60 31 0 0 0 0 1 0 0 1 3 1 1 0 1 0 0 1 0 1 1 1 2 1 0 0 1 1 2 1 2 1 1 1 0 0 3 5 2 3
72 40 9 0 5 0 0 0 0 1 1 1 2 2 3 2 1 1 0 0 0 0 0 0 0 2 2 1 0 1 0 0 2 4 2 2 1 2 0 0 0 0 0
47 8 0 0 0 0 1 1 1 2 1 1 1 3 3 1 1 1 2 0 0 0 0 1 1 2 2 1 2 2 0 1 3 2 2 2 2 0 0 0 0 0 0
0 0 0 0 0 3 0 0 2 1 2 2 4 6 2 1 1 2 1 0 1 0 0 0 1 0 0 0 0 0 0 1 1 2 2 1 1 0 1 0 0 0 0
5 0 0 0 0 0 0 0 0 1 0 0 0 1 1 2 1 0 0 1 1 0 1 1 1 1 1 1 1 1 1 1 1 1 1 2 1 1 1 0 0 0 0
7 4 1 0 1 1 0 0 1 1 0 0 0 0 0 0 0 0 0 1 0 0 0 1 1 1 1 1 1 2 1 0 1 1 1 2 1 0 0 0 0 0 0
0 0 0 0 1 1 0 0 0 1 1 2 0 0 0 1 2 2 2 2 0 0 1 1 1 2 1 1 1 0 1 0 0 0 1 1 0 0 0 1 0 0 0
0 0 0 0 1 0 0 0 0 1 0 1 1 0 2 2 2 2 1 0 0 0 0 1 1 3 2 1 0 0 0 0 3 1 0 0 0 0 0 0 0 0 0
0 0 0 1 1 1 1 0 3 2 2 1 0 0 0 1 2 1 0 0 0 0 0 0 0 0 0 0 0 0 0 0 0 0 0 0 0 0 0 0 0 0 0
0 0 0 3 1 0 1 1 1 2 3 2 1 1 1 0 0 0 0 0 0 0 0 0 0 0 0 0 0 0 0 0 0 0 0 0 0 0 0 0 0 0 0
0 1 0 0 0 1 1 2 1 2 2 1 1 0 0 0 2 1 2 1 2 1 1 2 1 0 0 1 0 0 0 0 0 0 0 0 2 0 10 0 0 7 7
1 2 3 0 0 2 2 3 2 1 1 1 2 0 0 0 0 0 2 4 2 1 2 2 2 2 1 0 0 0 4 0 0 0 1 22 21 19 13 28 22 18 21
1 3 2 0 0 0 2 2 1 1 2 2 2 1 0 1 1 0 0 0 1 0 0 0 0 0 1 1 1 1 1 1 1 2 1 4 5 10 20 18 11 6 1
0 0 1 0 1 1 3 3 2 0 1 0 0 0 0 0 0 0 0 0 0 0 0 0 0 0 0 0 0 0 0 0 0 0 0 1 1 0 0 0 1 0 0
0 1 0 0 2 1 0 0 0 0 0 0 0 0 0 0 0 0 0 0 0 0 0 0 0 0 0 0 0 0 0 0 0 0 0 0 0 0 0 0 0 0 0
0 0 0 0 0 0 0 0 0 0 0 0 0 0 0 0 0 0 0 0 0 0 0 0 0 0 0 0 0 0 0 0 0 0 0 0 0 0 0 0 0 0 0

GFSGL_con_sbcape_051.txt.gz
CAPE
0 0 0 0 5 55 256 442 623 788 783 918 1267 1585 1818 2234 2132 2139 2041 1864 1778 1311 989 1250 1153 901 719 601 469 372 365 347 408 130 33 88 31 347 170 160 106 348 254
0 0 0 0 10 32 149 259 473 743 827 1014 1335 1622 2091 2238 2186 2042 1975 1555 1310 1153 1023 973 879 479 578 524 352 568 557 403 349 552 13 35 29 30 32 83 50 212 405
0 0 7 112 47 133 189 388 534 806 1132 1353 1627 2018 2244 2205 1951 1694 1670 1233 788 744 411 728 851 681 739 583 566 641 404 256 282 169 51 14 12 16 9 13 37 29 9
0 8 206 482 193 199 419 704 922 1124 1466 1744 1974 2216 2218 1951 1522 1125 933 1052 1365 807 471 943 728 729 790 808 613 527 321 246 191 120 21 14 9 11 9 3 33 47 21
0 100 558 806 315 346 672 1058 1305 1578 1784 1973 2245 2200 1952 1598 1189 1416 1465 1444 1382 1000 893 768 753 537 309 541 443 442 357 258 74 3 8 11 8 7 10 13 18 22 10
91 539 1019 792 607 866 1237 1647 1797 1982 2028 2084 2074 1894 1584 1270 485 648 730 1126 1046 1030 947 807 674 4 2 0 0 0 175 290 23 8 14 19 16 21 17 9 9 14 24
131 817 1263 1033 1097 1211 1294 1626 1773 1811 1792 1937 1477 1453 1533 113 0 5 217 844 776 887 965 948 791 547 208 249 0 0 0 0 55 340 20 5 12 8 21 12 37 23 24
57 1026 899 1405 1413 1417 1631 1942 1846 1965 1995 1647 1430 1185 255 0 1 1 0 669 770 833 776 847 1003 936 583 429 37 46 91 111 69 94 462 14 6 8 55 56 47 40 21
60 901 988 1437 1203 1562 1722 1634 1296 793 872 551 70 37 16 0 0 1 75 709 632 538 481 621 755 620 1 0 165 335 312 38 0 0 8 5 0 0 24 22 40 12 9
767 1195 1231 1255 1165 1319 1164 698 645 375 73 134 178 193 0 1 1 2 78 252 268 86 39 6 0 169 0 0 19 261 129 14 14 16 4 0 0 0 0 33 17 7 0
879 1422 1402 1156 1046 609 377 93 28 11 21 13 3 2 4 2 1 1 0 197 74 7 72 8 0 2 2 1 5 81 92 7 2 142 58 9 6 2 16 18 53 41 48
816 1056 801 542 223 177 38 13 3 4 5 8 5 6 4 6 1 1 0 2 0 104 8 5 0 1 2 1 3 2 0 1 20 7 7 7 8 21 23 50 58 43 51
671 518 306 155 59 1 1 2 4 5 2 2 0 4 7 5 0 0 2 0 0 41 41 0 1 2 1 0 2 0 0 13 5 9 6 5 4 11 22 33 24 2 6
395 306 423 81 21 1 0 0 0 3 2 0 3 8 7 3 5 3 0 0 1 0 1 1 0 0 0 0 1 1 10 5 5 8 8 7 10 9 18 10 4 7 22
319 284 152 98 20 1 7 37 32 39 22 9 2 3 6 7 13 4 2 4 2 0 2 4 7 5 8 9 17 8 13 21 14 10 20 17 13 10 13 8 12 19 6
122 44 3 2 6 2 2 1 0 1 0 0 0 3 0 0 0 0 0 1 0 0 2 6 6 5 5 5 11 13 16 5 15 9 10 7 5 11 7 11 27 13 16
48 1 0 0 2 6 3 3 1 1 1 1 1 0 0 0 2 2 2 2 1 0 2 6 4 5 5 4 4 5 7 5 9 6 8 9 8 2 0 2 1 5 2
20 0 12 4 8 20 23 3 4 4 2 1 1 0 2 2 2 2 1 0 2 1 2 0 6 16 10 5 3 2 5 6 7 6 15 15 8 1 2 2 4 40 74
56 25 6 20 40 19 1 5 6 4 1 1 2 0 0 2 1 0 0 4 5 1 2 0 22 29 14 3 2 21 10 31 37 43 44 10 6 5 1 1 0 0 0
32 7 21 24 17 2 1 5 4 2 3 9 6 2 1 10 13 7 0 6 28 15 4 13 10 7 12 26 30 19 15 9 18 12 2 2 1 0 0 0 3 18 53
12 21 0 13 2 2 3 5 5 3 7 8 5 0 0 0 1 1 1 1 2 3 2 1 1 1 0 31 21 15 3 22 0 0 0 0 0 0 17 33 113 141 151
1 3 3 5 4 9 10 6 3 5 6 5 3 0 0 0 2 2 3 2 2 2 2 1 1 1 0 0 0 0 13 18 29 5 5 21 15 58 103 126 129 173 168
25 2 5 12 8 0 4 3 3 3 5 6 1 0 0 0 1 1 0 0 0 0 0 0 0 0 0 0 0 0 4 3 4 18 69 100 35 16 20 10 18 5 0
49 4 3 6 8 7 4 4 8 2 3 0 0 0 0 0 0 0 0 0 0 0 0 0 0 0 0 0 0 0 0 0 0 0 0 2 0 0 0 0 0 0 0
12 3 4 5 4 2 1 0 2 0 0 0 0 0 0 0 0 0 0 0 0 0 0 0 0 0 0 0 0 0 0 0 0 0 0 0 0 0 0 0 0 0 0
5 2 3 1 1 0 0 0 0 0 0 0 0 0 0 0 0 0 0 0 0 0 0 0 0 0 0 0 0 0 0 0 0 0 0 0 0 0 0 0 0 0 0

GFSGL_con_sbcape_057.txt.gz
CAPE
0 0 2 1 0 56 311 897 1179 2195 2682 2857 2171 2773 3615 3876 4114 4478 3683 3077 3307 3658 3210 3103 3253 3056 2252 1676 1728 1477 2184 1794 1328 1698 1287 887 568 888 778 649 748 639 79
0 0 0 0 0 78 243 556 1278 1891 2271 2323 2382 2445 2639 3598 4053 3898 3129 2348 3152 2867 3137 2906 2978 2387 2202 2314 2247 1726 1382 1400 968 1204 965 550 588 423 658 549 791 1057 660
1 11 132 169 170 138 290 578 1364 1421 1794 2081 2073 2282 2755 3165 3374 3505 2781 2601 2868 2872 3153 3057 2504 2417 2470 1807 1936 2017 1160 811 921 903 1136 381 508 140 82 398 674 814 148
42 27 77 298 325 237 415 591 937 1203 1400 1453 2407 2164 2541 2585 2712 2863 2956 3181 3142 3030 3051 2619 2274 2098 1888 1911 1918 1233 801 1142 1210 1000 910 481 86 39 15 170 311 824 214
95 60 86 307 223 58 118 450 782 1274 1089 1285 1685 2092 2860 2791 2314 3271 3257 3457 3490 3019 2843 2161 2139 1627 1257 1353 942 1679 1567 922 1160 1456 1246 560 236 20 119 10 360 363 173
230 236 212 182 147 300 688 757 1310 1658 1743 1841 2034 2138 2933 1978 1650 2082 3022 3162 2629 2419 2266 1982 1755 568 367 86 17 0 569 1390 1150 1114 335 245 544 110 451 296 791 111 126
370 327 262 283 216 151 195 511 1180 2255 2637 2701 2636 2820 3252 3144 1232 1908 2012 2683 2615 2750 2289 2022 1513 1084 765 744 35 0 0 0 31 1024 925 890 674 420 205 381 196 444 706
370 428 248 305 263 164 611 587 1671 2614 3210 3578 3642 3437 3811 1777 243 1171 1334 2183 2154 1986 1785 1721 1694 1404 831 620 563 268 310 442 316 365 864 721 450 473 804 642 639 584 612
372 368 322 302 311 374 519 1046 2157 2911 3345 3695 3724 3632 2946 738 15 807 1153 1909 1709 1465 1274 1148 989 946 704 223 856 724 809 523 0 0 56 47 1 10 169 715 715 294 151
276 264 355 305 380 730 891 1806 2343 3032 3287 3160 2815 3279 1982 1372 0 534 663 1179 1574 996 1106 1188 61 808 0 62 1083 1263 1051 945 371 313 24 4 3 10 3 638 1006 285 53
307 360 366 397 723 887 1840 2357 2555 2943 2379 2254 2489 2103 1611 1078 7 0 0 1053 921 946 830 1016 515 1 0 0 0 1457 891 939 145 750 390 116 143 152 45 323 857 97 86
294 266 271 469 787 1188 1950 2155 2408 1708 1959 2261 2261 1702 1363 390 0 1 0 41 427 883 741 727 53 1 1 1 197 0 0 102 995 1196 754 421 268 95 72 421 678 313 64
224 268 255 794 743 1313 1958 1218 1362 1587 1903 1722 1575 1416 936 458 102 1 0 0 0 1013 65 67 1 1 1 0 2 0 2 39 256 705 639 736 364 102 93 518 284 513 352
55 59 390 550 723 1075 1096 1239 1616 1746 1653 1370 1130 693 627 541 328 197 23 36 2 0 0 0 0 0 0 0 0 4 392 444 375 417 520 332 134 75 86 537 232 269 384
72 324 587 647 884 748 422 670 1378 1380 920 1050 831 544 472 434 311 127 162 302 527 64 7 10 49 105 124 187 285 304 549 205 156 355 103 40 17 24 77 89 79 82 65
117 485 588 599 31 87 35 1 0 0 0 0 125 234 8 0 0 0 0 0 0 0 101 202 120 113 184 309 400 447 207 15 83 112 131 51 23 24 34 33 44 51 96
165 430 214 109 368 342 194 23 2 0 1 1 0 0 0 1 3 0 0 0 0 0 305 294 172 152 115 108 129 126 269 122 51 70 98 119 35 29 8 29 50 23 41
11 131 691 606 443 392 204 189 270 181 79 0 0 0 0 1 2 1 0 0 4 58 151 73 63 108 118 108 80 46 42 52 70 26 69 52 41 24 42 21 29 45 2
185 372 384 540 165 47 237 197 108 44 5 2 1 0 0 1 2 0 0 6 3 0 12 83 60 87 62 29 21 21 25 27 17 39 39 70 45 75 35 53 0 0 0
242 75 105 259 68 184 164 117 9 12 17 10 4 3 0 2 4 20 58 25 25 0 0 18 49 43 52 36 22 19 19 4 11 46 55 42 60 38 1 85 24 96 34
67 4 100 337 305 178 83 32 27 23 19 15 13 0 0 8 5 1 0 9 1 0 10 29 23 19 5 21 50 38 53 85 94 79 61 40 3 0 7 1 39 48 94
153 365 316 213 165 134 50 4 7 9 9 1 0 0 0 0 0 1 0 0 0 0 0 3 3 3 1 10 33 66 48 96 51 50 57 2 18 146 190 164 74 87 142
248 304 269 139 103 1 10 13 6 15 5 2 0 0 0 1 1 0 0 0 0 2 1 2 1 1 0 0 0 37 0 9 36 97 163 170 147 156 95 14 1 0 0
337 316 205 137 27 11 11 14 4 1 2 0 0 1 0 0 0 0 0 0 0 0 0 0 0 0 0 0 0 0 0 0 2 4 22 10 0 0 0 0 0 0 0
166 71 7 3 6 7 14 11 10 2 0 0 0 0 0 0 0 0 0 0 0 0 0 0 0 0 0 0 0 0 0 0 0 0 0 0 0 0 0 0 0 0 0
72 17 5 9 9 8 8 7 4 5 0 0 0 0 0 0 0 0 0 0 0 0 0 0 0 0 0 0 0 0 0 0 0 0 0 0 0 0 0 0 0 0 0

GFSGL_con_sbcape_060.txt.gz
CAPE
0 32 141 59 134 209 199 200 223 701 989 1133 1083 1712 2643 3436 3661 3548 3648 3492 3400 2960 2629 2402 2841 2437 2766 2169 1958 1686 1320 1099 850 642 1028 889 594 695 717 588 492 479 0
23 41 88 200 359 351 101 150 637 531 1062 1115 1469 1606 1388 1456 2873 3525 3713 3550 3188 2625 2582 2604 2729 2765 2808 2348 2051 1745 1120 1235 1032 657 716 622 482 402 457 520 519 418 38
16 38 270 356 549 392 388 306 308 346 525 975 1425 1656 2107 2397 2885 3544 3759 3404 2623 2635 2783 2719 2706 2708 2484 2097 1906 1595 1030 1150 1017 764 906 494 307 142 14 225 394 278 14
0 24 78 642 688 744 707 380 174 133 265 843 1387 1684 2069 2003 2622 3482 3428 2720 2495 2898 2877 2908 2783 2403 2264 2064 1698 1599 1100 1146 1106 830 731 522 188 5 3 4 77 145 12
0 113 244 627 751 535 361 234 154 174 410 597 948 1501 1715 2179 2524 3031 2868 2764 3048 2902 3132 2986 2466 2073 1729 1818 1687 1383 1106 975 1012 689 502 461 149 1 0 2 108 29 50
118 122 157 232 218 356 291 438 244 140 294 888 1056 1243 1699 1941 2165 2468 2750 2944 3254 2981 2871 2452 1063 217 36 97 24 122 1498 1121 783 663 461 328 205 0 102 14 53 66 15
10 88 156 142 242 303 267 210 301 610 375 648 1614 1571 1674 2443 886 1060 2760 3098 2995 2790 2499 2336 1290 892 321 44 0 0 0 24 553 600 565 466 378 138 119 212 92 78 140
33 66 75 134 161 227 316 361 363 460 666 1246 1718 2085 2097 2453 262 667 2597 2730 2453 2309 2426 2091 1777 1332 983 847 337 443 381 178 142 289 837 648 496 407 276 347 166 169 118
95 79 47 43 213 305 255 516 569 527 523 1376 1843 2484 2383 293 0 889 2251 2426 2134 2199 1935 1856 1492 1304 850 405 632 431 386 0 0 0 5 117 48 143 360 201 94 169 116
82 51 91 243 340 345 451 650 528 760 1147 1411 1761 2549 2029 724 0 847 1864 1978 1801 1396 1437 87 56 967 155 140 1028 638 665 229 13 4 0 0 0 0 0 318 132 74 35
33 34 100 347 448 407 612 850 766 817 1386 1131 1858 2094 1945 591 0 0 90 1400 1282 1160 886 1119 52 0 0 0 271 716 509 437 150 349 215 71 137 94 27 86 252 271 40
45 95 134 348 426 414 669 753 849 1299 1502 1599 1742 1867 1510 507 0 0 47 138 686 652 860 585 0 2 1 0 26 0 0 176 401 271 62 95 43 112 58 207 227 169 137
78 108 188 370 233 352 526 651 1055 1367 1293 1569 1488 1376 788 22 1 1 0 8 337 496 197 10 2 0 2 1 1 0 25 135 89 85 123 169 215 162 98 160 175 263 263
66 163 227 307 372 405 411 532 730 1131 1202 1273 1320 814 555 130 10 0 0 0 0 0 0 0 0 0 0 0 0 0 79 57 56 79 87 147 113 71 11 210 141 181 141
66 126 166 102 104 72 179 264 701 1022 1175 1252 998 666 455 310 247 154 293 278 167 0 0 0 0 0 2 0 2 136 262 104 110 113 121 75 63 43 105 106 96 49 48
51 23 35 65 104 156 3 1 3 1 159 686 679 502 0 87 0 1 2 0 0 0 0 0 26 51 43 145 301 357 264 121 192 135 105 27 7 9 15 24 27 52 36
15 14 12 17 136 77 29 1 4 1 0 0 0 0 0 0 0 0 0 0 0 0 226 137 89 173 149 85 299 251 20 91 28 80 85 32 20 24 8 15 13 9 16
71 31 37 200 190 57 126 157 86 4 0 0 1 0 1 1 2 2 0 0 0 36 230 135 154 146 127 108 67 31 109 70 40 19 33 19 30 30 12 9 13 8 21
72 197 259 237 154 263 334 267 67 0 1 2 0 0 0 1 1 0 0 1 58 101 96 55 87 78 60 50 48 45 30 21 23 21 35 63 54 38 11 7 3 0 0
137 5 110 189 207 337 105 0 0 3 4 3 1 0 0 1 2 4 3 0 0 1 4 14 63 51 32 18 15 13 9 16 12 21 58 87 73 25 7 5 31 18 10
172 132 25 122 107 38 17 0 2 5 4 2 1 0 0 0 0 9 11 2 0 0 0 5 24 4 6 7 9 3 2 3 48 87 41 6 21 11 46 33 17 37 57
188 156 47 14 5 11 3 5 7 4 2 1 0 0 0 0 0 0 0 0 0 0 0 0 0 0 0 1 40 19 80 81 52 57 7 3 16 34 56 45 17 0 0
175 175 126 64 0 0 1 0 1 1 1 1 0 0 0 0 0 0 0 0 0 0 0 0 0 0 0 0 0 0 7 25 45 71 69 104 62 15 0 0 0 0 0
236 176 7 0 1 0 0 1 3 0 0 0 0 0 0 0 0 0 0 0 0 0 0 0 0 0 0 0 0 0 0 0 0 0 0 0 0 0 0 0 0 0 0
129 15 1 0 0 0 1 2 1 0 0 0 0 0 0 0 0 0 0 0 0 0 0 0 0 0 0 0 0 0 0 0 0 0 0 0 0 0 0 0 0 0 0
13 2 2 0 1 0 1 1 3 1 0 0 0 0 0 0 0 0 0 0 0 0 0 0 0 0 0 0 0 0 0 0 0 0 0 0 0 0 0 0 0 0 0

GFSGL_con_sbcape_063.txt.gz
CAPE
0 0 0 0 0 0 0 9 95 78 121 202 324 321 595 700 530 425 222 269 747 976 2127 2623 2527 1789 1747 1501 754 653 565 401 425 117 306 166 98 198 148 86 56 24 0
0 0 0 0 0 0 0 0 26 53 65 190 486 564 735 978 1424 659 774 1620 2262 2606 2781 2448 2314 2082 1706 1527 804 736 581 303 166 119 204 81 31 0 19 28 57 5 0
0 0 0 0 0 0 0 0 0 0 0 25 66 117 412 912 1135 2598 2917 2885 2907 2688 2662 2085 2011 1978 1840 1527 729 570 374 405 263 175 166 0 0 0 0 0 0 0 0
0 0 0 0 0 1 10 20 16 0 0 11 48 142 527 955 1251 1474 1891 2837 3153 2626 2328 1765 1759 2108 1894 1284 896 701 437 341 219 192 65 2 0 0 0 0 0 0 0
0 0 0 0 0 81 102 252 292 190 55 0 0 17 136 598 1166 1409 2403 2897 3090 1971 2013 1997 1760 1755 1650 1196 875 674 343 210 85 41 23 0 0 0 0 0 0 0 0
0 0 0 0 0 0 3 20 50 51 11 0 0 97 221 394 863 1211 1518 2694 1702 1692 1921 1816 1643 1551 1269 1166 929 660 396 160 83 3 0 0 0 0 0 0 0 0 0
0 0 0 0 0 8 0 29 58 42 56 3 0 0 122 663 948 946 352 2371 1797 1766 1647 1015 368 80 0 0 0 11 124 172 63 0 0 0 0 0 0 0 0 0 0
0 0 0 0 0 0 0 2 5 22 6 76 181 87 50 323 1062 1087 180 1829 1809 1581 1293 397 336 0 0 0 0 0 0 0 19 161 7 0 0 0 0 0 0 1 0
0 0 0 0 0 0 0 0 1 59 69 32 121 211 711 887 1018 369 0 1418 1328 1241 1221 725 420 214 2 1 37 49 0 0 1 0 26 2 29 0 0 0 0 11 23
2 4 1 0 9 0 0 0 2 7 83 54 144 330 537 858 939 0 0 1474 1209 1000 697 315 728 467 4 86 57 0 0 0 0 0 0 0 0 0 0 0 0 13 0
0 1 4 0 5 27 15 25 7 43 209 317 419 375 601 803 54 0 76 1209 992 779 220 0 0 294 0 7 169 0 3 0 0 0 0 0 0 0 0 0 1 2 0
2 1 3 7 3 7 25 44 203 320 304 269 416 374 632 24 1 0 243 892 583 536 324 0 0 2 0 0 54 0 32 0 0 0 0 5 3 0 0 0 0 0 0
9 8 0 0 7 3 3 72 48 163 392 342 393 636 578 1 1 0 160 206 310 310 8 0 2 2 2 1 2 3 0 0 0 0 6 6 4 0 0 0 0 0 1
5 18 5 0 0 0 24 85 139 239 403 446 482 538 426 1 1 0 0 0 1 0 1 0 0 0 0 1 1 1 0 0 1 7 22 28 17 0 0 0 0 0 0
10 6 0 0 0 2 17 104 195 205 188 112 200 572 125 4 0 0 0 0 0 0 0 0 0 0 0 0 0 0 0 1 15 21 41 32 8 0 3 0 0 0 0
12 0 0 1 3 9 9 12 0 0 1 0 18 522 172 51 0 0 0 0 0 0 0 0 0 0 0 0 0 0 2 16 22 56 44 18 8 10 43 11 1 1 0
10 9 21 10 3 59 69 173 111 0 0 0 0 7 0 0 0 0 0 0 0 0 0 0 0 0 0 0 0 0 0 0 4 31 17 8 10 8 9 11 4 0 0
14 0 3 8 6 7 41 86 1 20 2 0 0 0 1 0 0 0 0 0 0 0 0 0 0 0 0 0 0 1 7 5 8 7 10 10 9 6 1 0 0 4 1
1 4 1 9 20 12 38 63 19 2 7 1 1 1 0 1 1 0 0 0 0 0 0 0 0 0 0 0 0 8 2 5 6 10 11 16 9 3 1 0 0 0 0
2 38 1 48 2 4 7 2 34 4 0 0 0 0 0 0 0 0 0 0 0 0 0 2 0 0 0 0 0 1 0 1 2 11 8 0 0 6 0 2 0 0 0
0 0 5 1 26 13 19 3 3 0 0 0 0 0 0 0 0 0 0 0 0 0 0 0 0 0 0 0 3 2 3 3 5 0 1 9 7 0 0 6 0 0 0
16 52 87 21 3 1 4 3 2 1 0 0 0 0 0 0 0 0 0 0 0 0 0 0 0 0 0 0 0 0 0 1 10 2 0 2 1 0 3 1 0 0 0
87 29 4 0 0 0 1 1 1 0 0 0 0 0 0 0 0 0 0 0 0 0 0 0 0 0 0 0 0 0 0 0 0 0 0 0 0 0 0 0 0 0 0
0 0 0 0 0 0 1 0 0 0 0 0 0 0 0 0 0 0 0 0 0 0 0 0 0 0 0 0 0 0 0 0 0 0 0 0 0 0 0 0 0 0 0
0 0 0 0 0 0 0 0 0 0 0 0 0 0 0 0 0 0 0 0 0 0 0 0 0 0 0 0 0 0 0 0 0 0 0 0 0 0 0 0 0 0 0
0 0 0 0 0 0 0 0 0 0 0 0 0 0 0 0 0 0 0 0 0 0 0 0 0 0 0 0 0 0 0 0 0 0 0 0 0 0 0 0 0 0 0

GFSGL_con_sbcape_069.txt.gz
CAPE
0 0 0 0 0 0 0 0 0 0 0 0 0 0 84 241 343 432 236 183 105 105 59 29 0 0 1 145 85 83 205 177 358 164 0 0 0 0 0 0 0 0 0
0 0 0 0 0 0 0 0 0 0 0 0 0 3 70 144 244 431 466 520 392 362 293 307 171 104 34 184 1088 868 568 110 102 243 1 0 0 0 0 0 0 0 0
0 0 0 0 0 0 0 0 0 0 0 0 0 0 0 68 227 377 589 735 651 657 617 645 680 661 875 1294 1026 849 195 62 5 0 0 0 0 0 0 0 0 0 0
0 0 0 0 0 0 0 0 0 0 0 0 0 0 0 0 0 2 40 114 325 530 976 1025 1259 1185 1317 1399 995 842 109 106 21 0 0 0 0 0 0 0 0 0 0
0 0 0 0 0 0 0 0 0 0 0 0 0 0 0 0 0 0 0 1 71 364 655 1243 1803 2032 1782 1582 1142 400 137 88 7 0 0 0 0 0 0 0 0 0 0
0 0 0 0 0 0 0 0 0 0 0 0 0 0 0 0 0 0 0 0 3 63 171 620 1122 1567 1145 1012 659 750 226 68 50 0 0 0 0 0 0 0 0 0 1
0 0 0 0 0 0 0 0 0 0 0 0 0 0 0 0 0 0 0 0 0 2 54 270 639 1225 1076 621 5 46 0 64 64 0 0 0 0 0 0 0 0 0 0
0 0 0 0 0 0 0 0 0 0 0 0 0 0 0 0 0 0 0 0 0 0 11 72 489 978 707 544 88 11 18 0 0 0 0 0 0 0 0 0 0 0 0
0 0 0 0 0 0 0 0 0 0 0 0 0 0 0 0 0 0 0 0 0 1 17 168 709 880 620 215 192 59 4 1 1 1 0 0 0 0 0 0 0 0 0
0 0 0 0 0 0 0 0 0 0 0 0 0 0 0 0 0 0 0 0 0 1 75 464 605 662 1 16 160 12 0 0 0 0 0 0 1 2 0 0 0 0 0
0 0 0 0 0 0 0 0 0 0 0 0 0 0 0 0 0 0 0 0 0 13 248 463 78 1 2 0 29 3 14 0 0 0 0 0 0 1 0 0 0 0 0
0 0 0 0 0 0 0 0 0 0 0 0 0 0 0 0 1 8 1 0 0 0 226 331 120 2 2 1 0 0 0 0 0 0 0 1 1 1 0 0 0 0 0
4 0 0 0 0 0 0 0 0 0 0 0 0 0 0 0 28 1 1 1 2 0 6 348 0 2 1 1 1 2 0 0 0 0 0 0 0 0 0 0 0 0 0
12 2 0 0 0 0 0 0 0 0 0 0 0 0 0 1 40 30 0 0 0 1 1 1 0 0 0 0 2 1 0 0 0 0 0 0 0 0 0 0 0 0 0
12 11 0 0 0 0 0 0 0 0 0 0 0 6 19 37 106 71 1 0 0 0 0 1 3 2 0 1 1 0 0 0 0 0 0 1 0 0 0 0 0 0 0
19 5 5 5 7 2 0 0 1 1 12 9 12 37 32 56 26 30 4 1 1 1 0 0 0 0 0 0 0 0 1 1 0 0 0 1 0 0 0 0 0 0 0
11 7 16 14 17 8 18 10 1 0 0 0 1 1 0 0 0 0 2 1 2 1 0 3 0 0 0 0 0 0 0 0 0 0 0 0 0 0 2 0 0 0 0
34 8 13 7 20 15 2 0 0 0 1 0 0 0 1 0 0 0 2 1 0 1 0 0 0 0 0 0 0 0 0 0 0 0 0 0 0 0 4 1 2 2 1
20 26 15 21 2 1 0 0 0 2 2 0 0 1 0 1 0 1 1 1 2 0 0 0 0 0 0 0 0 0 0 0 0 0 0 0 0 3 0 0 0 0 0
25 13 9 19 27 6 9 6 2 8 3 0 0 0 2 1 2 1 1 18 0 0 0 0 0 0 0 0 0 0 0 0 0 0 0 3 1 0 0 0 0 0 0
18 6 3 20 6 18 7 7 8 18 1 1 0 0 0 0 1 5 2 0 0 0 0 0 0 0 0 0 0 0 0 0 2 2 3 0 0 0 0 0 0 0 0
1 6 9 0 10 14 6 6 35 1 0 2 1 1 2 18 4 0 0 0 0 0 0 0 0 0 0 0 0 1 0 0 2 0 0 0 0 0 0 0 0 0 0
13 13 9 29 32 11 14 2 6 3 0 0 0 0 0 1 0 1 0 0 0 0 0 0 0 0 0 0 0 0 0 2 1 0 0 0 0 0 0 0 0 0 0
4 3 3 2 1 1 1 2 4 3 37 8 4 1 0 0 0 0 0 0 0 0 0 0 0 0 0 0 0 0 0 0 0 0 0 0 0 0 0 0 0 0 0
1 1 1 1 1 0 1 0 0 0 0 0 0 0 1 2 0 0 0 0 0 0 0 0 0 0 0 0 0 0 0 0 0 0 0 0 0 0 0 0 0 0 0
0 0 1 0 0 0 0 0 0 0 0 0 0 0 0 0 0 0 0 0 0 0 0 0 0 0 0 0 0 0 0 0 0 0 0 0 0 0 0 0 0 0 0

GFSGL_con_sbcape_072.txt.gz
CAPE
0 0 0 0 0 0 0 0 0 0 0 0 0 0 0 28 135 213 209 242 294 294 295 276 199 53 36 12 2 9 38 50 72 341 8 0 10 18 0 0 0 0 0
0 0 0 0 0 0 0 0 0 0 0 0 0 0 0 7 18 105 230 442 429 411 450 425 386 319 88 62 55 63 72 74 144 197 74 13 19 0 0 2 0 1 0
0 0 0 0 0 0 0 0 0 0 0 0 0 0 0 0 6 69 259 437 496 574 621 678 663 669 431 143 92 128 511 403 236 149 72 2 2 1 0 0 0 1 2
0 0 0 0 0 0 0 0 0 0 0 0 0 0 0 0 0 0 2 49 130 262 402 670 841 1152 1117 830 773 840 576 201 47 55 23 3 1 2 0 0 1 4 2
0 0 0 0 0 0 0 0 0 0 0 0 0 0 0 0 0 0 0 4 3 14 97 287 704 1015 1333 1508 1627 1499 542 452 114 41 8 3 2 1 1 0 0 2 2
0 0 0 0 0 0 0 0 0 0 0 0 0 0 0 0 0 0 0 0 0 4 12 10 99 264 593 673 362 248 637 399 198 66 34 19 0 1 0 0 0 3 0
0 0 0 0 0 0 0 0 0 0 0 0 0 0 0 0 0 0 0 0 0 0 0 0 36 172 266 758 792 49 1 3 155 76 63 69 10 0 0 0 1 0 0
0 0 0 0 0 0 0 0 0 0 0 0 0 0 0 0 0 0 0 0 0 0 0 0 2 38 210 524 986 492 108 19 1 21 115 67 86 0 0 0 0 1 2
0 0 0 0 0 0 0 0 0 0 0 0 0 0 0 0 0 0 0 0 0 0 0 11 53 204 345 377 467 539 175 1 3 1 0 0 0 0 0 1 2 2 6
0 0 0 0 0 0 0 0 0 0 0 0 0 0 0 0 0 0 0 0 0 0 8 85 55 18 159 1 177 464 96 8 1 2 2 0 0 1 0 0 1 1 0
0 0 0 0 0 0 0 0 0 0 0 0 0 0 0 0 0 0 0 0 0 2 9 74 284 247 8 2 1 297 240 0 0 0 0 2 0 1 1 0 0 3 0
0 0 0 0 0 0 0 0 0 0 0 0 0 0 0 0 0 0 0 1 0 6 9 34 289 43 2 2 2 27 0 0 0 0 1 2 1 2 2 0 0 0 0
1 1 0 0 0 0 0 0 0 0 0 0 0 0 0 0 0 0 0 0 1 0 2 1 12 2 2 0 0 1 0 0 0 1 7 2 1 0 2 2 1 0 0
10 5 5 9 1 0 0 0 0 0 0 0 0 0 0 0 0 0 0 0 1 0 0 0 0 0 0 0 1 1 0 0 0 2 1 1 2 2 3 2 1 2 34
3 5 12 14 4 0 0 0 0 0 0 0 0 0 0 0 0 0 0 24 22 1 1 3 3 2 0 3 2 1 1 2 2 0 1 2 3 2 2 1 0 1 31
20 22 16 15 4 0 1 2 0 0 0 0 0 0 3 0 0 0 0 0 0 1 3 3 1 1 1 1 1 1 2 1 2 1 2 2 1 0 1 0 0 25 1
15 20 18 4 3 5 2 0 0 0 0 0 0 0 0 0 1 2 1 0 0 1 3 38 8 1 14 13 1 1 0 2 3 1 18 12 0 8 3 3 10 2 0
35 19 35 28 31 32 27 30 32 22 4 1 0 0 0 0 0 0 0 1 0 1 1 76 6 2 6 1 0 0 1 1 2 4 23 0 1 0 9 21 6 11 6
45 33 26 24 23 41 38 39 25 13 5 0 1 0 0 1 1 0 0 2 3 1 3 6 1 0 2 0 1 0 0 0 2 2 0 0 0 0 0 0 0 0 0
36 18 41 40 31 25 23 23 17 13 4 0 0 1 1 1 2 1 2 2 7 12 1 1 1 2 3 0 0 1 0 2 2 2 0 4 12 4 0 0 0 0 0
32 8 2 32 41 12 15 20 3 1 6 0 0 0 0 1 2 1 2 5 15 1 0 1 1 1 0 0 0 0 0 0 4 3 3 2 4 0 0 0 0 0 0
14 17 6 16 14 22 31 6 8 20 29 10 2 0 1 1 0 0 6 2 0 0 0 0 1 0 0 0 0 4 0 2 1 4 10 2 0 2 2 0 0 1 1
4 10 12 7 8 5 14 3 12 14 10 13 2 1 1 4 15 6 0 0 0 0 1 0 0 0 0 0 0 1 0 0 4 16 2 2 0 0 0 0 0 0 0
7 6 3 2 8 2 2 9 17 4 2 0 1 0 0 0 0 2 0 0 1 2 0 0 0 0 0 0 0 0 0 0 0 0 0 0 0 0 0 0 0 0 0
1 1 2 2 1 1 1 1 2 1 0 0 1 0 0 1 0 0 0 4 2 0 0 0 0 0 0 0 0 0 0 0 0 0 0 0 0 0 0 0 0 0 0
1 1 1 1 1 0 0 0 0 0 0 0 0 0 0 0 0 0 3 1 0 0 0 0 0 0 0 0 0 0 0 0 0 0 0 0 0 0 0 0 0 0 0

GFSGL_con_sbcape_075.txt.gz
CAPE
701 692 553 457 467 405 430 425 289 210 59 44 213 423 311 352 605 912 809 722 761 847 884 718 575 646 520 743 479 126 78 82 48 466 717 824 828 892 616 305 269 399 47
182 205 295 403 316 293 223 139 100 33 0 0 2 10 27 144 535 468 291 230 331 316 221 437 380 346 762 937 811 366 142 96 200 812 830 1023 615 582 471 484 518 189 155
0 1 43 104 196 329 288 186 88 44 0 0 0 46 61 69 203 308 251 192 189 143 126 228 349 503 697 893 1136 956 419 243 196 172 368 321 240 105 234 388 406 231 3
0 38 51 23 16 67 128 81 20 1 0 0 18 0 57 103 32 46 70 145 185 77 195 336 207 279 580 835 1093 1203 946 575 648 468 553 681 159 111 141 585 348 89 128
0 0 41 171 90 8 14 19 13 76 119 101 124 171 222 246 124 283 282 291 235 169 218 230 58 75 181 332 542 1250 1551 1065 768 864 701 521 139 73 190 541 484 387 148
0 0 0 0 9 36 43 105 229 301 322 294 335 308 343 11 0 0 0 0 0 0 152 173 104 25 50 78 98 0 271 1608 1854 1710 1275 858 566 241 297 457 548 179 278
0 0 0 0 0 0 6 47 211 459 509 400 244 26 0 0 0 0 0 0 0 0 0 72 98 0 132 196 126 252 31 1 1 1706 1903 852 701 597 451 511 374 375 241
0 0 0 0 0 0 0 27 240 336 249 102 0 0 0 0 0 0 0 0 0 0 0 12 192 322 297 151 363 846 1272 1165 62 18 887 968 720 993 557 539 452 347 136
0 0 0 0 0 0 0 4 122 59 36 6 0 0 0 0 0 0 0 0 0 0 0 0 133 348 206 147 188 772 1123 968 1 1 32 34 23 30 260 248 269 240 187
0 0 0 0 0 0 0 0 0 0 0 0 0 0 0 0 0 0 0 0 0 0 0 5 33 91 103 0 0 496 1217 1036 6 13 10 0 0 0 0 416 363 283 224
5 0 0 0 0 0 0 0 0 0 0 0 0 0 0 0 0 0 0 0 0 0 0 0 2 123 6 1 1 114 1145 1096 113 656 188 2 5 8 70 251 398 317 221
20 14 7 5 0 0 0 0 0 0 0 0 0 0 0 0 0 0 0 0 0 0 0 1 194 116 0 0 1 0 2 249 636 339 185 33 13 58 232 310 352 323 309
51 62 27 24 5 0 1 0 0 0 0 0 0 0 0 0 0 0 0 0 0 0 0 0 0 0 0 0 0 1 2 435 528 468 236 151 149 282 319 375 369 382 375
59 72 55 39 29 12 3 1 0 0 0 0 0 0 0 0 0 0 0 0 0 0 0 2 0 0 0 0 1 0 188 462 566 671 402 301 294 258 367 300 301 382 437
32 34 59 36 24 32 22 16 2 9 0 0 0 0 0 0 0 0 0 0 0 0 15 16 2 7 3 6 7 3 150 202 360 342 362 288 275 377 190 362 359 340 425
23 29 25 23 19 20 38 30 1 0 0 0 0 0 0 0 0 0 0 0 0 0 14 100 3 13 5 25 28 4 87 63 353 356 461 314 293 344 194 211 156 288 320
17 24 14 5 21 36 48 27 26 2 0 0 0 0 0 0 0 0 0 0 1 0 14 177 9 8 88 155 16 24 29 174 288 395 386 373 384 241 130 121 210 143 192
20 11 26 28 38 57 49 47 47 46 19 12 0 0 1 0 1 0 0 1 3 1 81 27 65 65 190 381 282 228 210 171 256 295 530 432 369 258 115 190 211 188 221
23 19 34 36 39 45 57 48 29 41 32 36 37 1 0 0 1 0 0 5 77 152 9 4 56 310 105 192 395 257 136 202 486 515 467 428 211 43 142 243 155 22 5
32 3 14 62 59 64 57 39 42 52 46 40 43 29 12 3 5 4 4 5 9 41 16 9 62 84 26 97 99 38 55 25 228 232 408 257 92 67 16 4 27 23 52
35 22 9 46 57 51 53 45 64 52 60 26 22 10 1 3 1 2 6 5 2 0 7 75 34 10 27 111 219 124 77 30 78 162 18 93 422 22 95 82 107 131 134
31 25 24 35 40 29 32 29 34 13 6 17 7 7 0 1 9 8 2 1 0 2 99 19 16 76 227 350 458 515 562 491 523 319 422 391 307 73 18 70 161 188 124
28 19 23 21 19 10 37 43 6 7 25 46 13 22 3 6 5 8 7 8 16 82 11 13 38 200 357 396 445 455 406 428 418 348 252 145 75 98 156 102 98 54 55
5 5 11 19 22 33 34 18 12 0 18 55 53 27 42 12 8 10 20 27 1 1 16 23 92 227 312 297 209 246 318 295 263 170 65 168 69 17 95 55 8 0 0
6 6 4 1 1 0 6 16 14 25 20 28 34 5 2 1 0 0 0 1 1 11 56 134 234 202 121 62 105 56 0 0 8 0 0 0 7 23 0 0 0 0 0
3 3 2 1 1 2 3 3 4 7 17 17 2 4 1 1 1 1 1 2 4 6 27 46 30 0 0 0 0 0 0 0 0 0 0 0 0 0 0 0 0 0 0

GFSGL_con_sbcape_081.txt.gz
CAPE
488 841 1250 2686 3223 3543 3570 3752 4150 4116 4510 3553 2728 4471 3759 3904 3916 3790 3835 3106 3111 3329 2925 2291 1679 2215 1986 1843 2380 2557 2192 1555 1305 1185 1208 933 1345 1028 1177 699 860 1707 136
466 732 992 2196 3223 3632 3661 3290 2840 2706 2350 3242 3138 3102 2770 2843 3650 3235 2849 2516 2456 2646 2557 2393 2076 2103 2342 2390 1442 2232 1225 1029 783 1186 1187 1033 1592 1235 668 611 1354 1767 744
445 748 972 1620 2700 3083 3269 2540 1972 2644 2407 2241 1969 1898 1592 1679 1924 2139 2165 1966 2336 2384 2081 2100 1866 1842 1850 1174 1432 881 716 1138 1224 931 1145 1198 1021 1337 707 606 566 919 719
152 534 795 916 1609 1996 1972 2170 1303 1658 1620 1124 1429 896 846 809 1084 1298 1277 1290 1296 1318 1319 1015 497 383 599 1130 969 1565 1179 1013 734 632 1007 1044 1121 1070 1046 573 720 933 581
31 123 336 174 1057 1440 1382 1309 1683 1393 1040 700 646 461 675 773 695 1103 1033 1209 1531 1249 885 272 169 8 0 48 9 331 1048 541 203 368 321 555 816 1440 1190 1113 304 1181 1299
31 2 91 146 36 875 1567 1473 1542 1149 1072 843 893 569 997 334 210 218 1038 1501 1279 946 1010 492 164 1 0 0 0 0 8 687 963 343 345 444 1275 953 1700 261 339 528 992
33 23 0 22 10 5 725 1289 1438 1805 1653 1443 1166 1044 1227 1234 69 71 153 1489 1646 1536 743 268 0 0 0 0 0 0 0 0 0 791 1551 1246 1585 1812 1003 895 341 257 346
12 43 20 0 0 3 39 514 1759 2193 2323 2063 1469 1310 1397 1122 0 165 216 1767 1458 984 677 244 118 31 18 0 0 18 161 482 631 228 296 1592 2180 2381 2021 1215 368 246 805
13 39 45 39 0 0 11 22 194 1861 2094 2164 2070 1735 2098 749 0 0 45 1140 768 466 142 95 33 24 0 0 0 29 269 685 42 0 82 9 1 85 144 850 167 99 505
37 46 40 60 29 10 7 6 113 724 1501 1294 1986 2213 1959 516 0 0 0 0 683 136 483 149 0 0 0 0 1 59 288 551 248 473 1125 537 78 271 1 1074 265 340 856
4 47 8 34 70 39 227 31 13 78 989 1629 1793 2353 2175 1812 0 0 0 65 0 34 0 21 17 0 0 0 0 276 606 214 188 319 841 1575 1313 1427 870 409 368 712 271
25 7 28 2 16 61 247 160 4 21 173 493 1388 1756 1699 1841 0 0 0 0 0 128 25 0 13 0 0 0 0 0 0 0 43 355 1746 1204 1390 1115 725 768 1454 1049 815
30 45 20 5 29 18 326 146 68 6 33 304 795 1068 1169 1156 701 0 0 0 0 0 0 0 0 0 0 0 0 0 0 161 180 507 1797 1709 1218 832 791 1145 1135 410 421
20 26 27 20 24 28 45 244 169 185 68 122 284 703 981 857 996 152 0 0 0 0 0 0 0 0 0 0 0 0 142 193 160 654 1963 1790 1185 888 956 968 757 784 956
10 17 28 25 26 9 5 65 261 466 305 803 636 824 1077 1022 836 392 145 19 0 0 0 0 13 0 0 0 0 27 52 93 330 829 1859 1488 1262 826 757 634 764 1210 835
16 15 18 32 21 9 1 0 0 16 26 0 0 132 298 189 20 0 0 0 0 0 0 8 1 0 0 0 47 71 150 117 343 994 1594 1511 1312 875 976 1054 893 914 835
17 18 15 19 33 31 9 0 1 2 0 0 0 0 0 0 0 0 0 0 0 0 0 0 0 0 0 21 28 54 108 275 299 798 1438 1275 989 1428 266 605 832 795 609
13 5 15 8 23 25 16 16 3 24 33 6 0 0 0 0 0 0 0 0 0 0 0 0 0 0 0 47 92 60 131 186 337 790 1291 1143 1202 961 724 630 915 661 613
15 15 12 9 27 20 15 28 33 7 28 58 38 0 0 0 0 0 1 0 0 0 0 0 0 0 26 129 278 120 176 270 548 536 1273 1338 1166 1129 830 521 916 215 245
5 2 5 18 31 25 26 27 31 26 10 59 95 77 11 0 0 0 0 0 0 0 0 0 0 0 99 197 176 153 157 492 534 559 1074 1017 1409 800 234 471 495 379 327
3 1 0 14 21 32 22 20 36 30 69 80 81 55 14 0 0 0 0 0 0 0 0 1 0 50 31 108 153 120 362 532 449 865 1030 1188 864 603 256 495 648 341 159
0 0 0 3 26 16 7 32 34 52 47 42 48 22 0 15 15 3 3 3 0 0 0 2 14 99 154 218 100 159 599 406 650 693 932 1051 795 417 498 258 264 213 32
25 9 12 21 7 0 6 27 40 29 11 7 14 20 13 29 28 29 28 49 134 81 6 16 40 27 281 170 174 280 243 448 785 993 1159 690 838 292 110 79 200 52 47
1 8 13 10 13 24 28 37 24 4 63 59 54 37 27 55 45 44 67 57 125 67 52 80 50 46 102 354 430 282 305 658 658 1010 863 520 75 30 33 30 233 168 39
6 11 6 27 29 6 18 15 62 67 43 43 31 52 51 58 49 37 16 27 41 67 89 50 36 46 70 141 170 142 239 329 709 699 821 262 159 152 64 201 241 14 0
5 5 7 6 6 10 50 28 46 22 15 35 234 209 220 229 267 213 286 297 164 46 53 204 350 245 172 196 193 238 42 2 0 47 135 365 310 622 144 39 45 3 0

GFSGL_con_sbcape_084.txt.gz
CAPE
220 417 499 403 1006 873 1649 2245 2773 2525 2796 2752 2897 3105 2709 2908 2777 2855 2908 3205 2898 2728 2572 2653 2333 2532 1639 1460 1389 1492 1678 1725 1518 1039 926 1204 1013 998 1351 936 581 273 0
231 458 513 444 994 1334 1733 2088 2295 2502 2582 2674 630 1179 2403 1902 992 1688 2172 2988 3005 3234 2967 2806 2388 1989 2072 2192 2042 1776 1476 1281 1076 898 899 855 1198 1336 1185 702 418 778 386
256 251 553 581 842 1002 1406 2020 2630 2494 2566 809 128 22 1 0 0 116 1652 2777 2918 3136 2927 2781 2434 2386 2213 2106 1310 1153 1239 1121 746 776 713 880 860 937 1093 772 589 742 550
130 66 407 537 850 544 1086 1771 2163 2318 1419 4 4 4 25 0 0 408 2217 2688 2538 2615 2477 2203 1886 1793 1607 1585 1319 1177 1159 1058 695 631 718 665 534 572 1026 862 578 518 328
1 13 120 500 617 502 639 1102 1596 493 186 367 0 0 656 0 387 1158 1633 1686 2198 1997 1824 1663 1551 522 201 225 302 327 167 13 340 348 354 624 535 272 529 325 406 399 233
0 0 6 99 233 258 278 191 19 110 26 145 663 5 31 1024 731 993 1267 1426 1612 1249 1020 936 164 1 0 0 0 0 0 97 104 104 34 45 137 420 425 406 484 174 76
0 0 0 0 27 164 55 32 17 1 333 868 578 431 726 441 455 643 1091 1265 1403 1332 1093 1062 43 14 0 103 0 0 0 0 0 128 175 242 660 658 738 795 605 295 117
1 0 0 1 2 25 78 61 61 7 222 1260 1047 713 784 525 3 342 998 1478 1437 1474 1161 794 333 68 14 11 0 25 154 279 40 0 0 0 85 718 823 718 458 394 87
46 2 0 2 2 0 137 157 168 0 0 1612 1611 1535 1035 1 0 78 804 1350 1088 898 797 709 584 300 0 0 0 0 36 182 311 70 0 8 1 0 4 281 499 30 34
42 23 0 2 1 2 87 130 8 0 0 404 1828 1695 1123 204 0 0 865 687 821 587 708 615 0 168 0 0 0 69 182 141 403 567 218 215 11 38 1 98 549 52 63
25 39 36 0 0 15 0 286 0 0 2 37 955 1701 907 77 0 0 401 429 422 344 302 580 392 0 0 0 0 0 148 204 428 312 86 71 579 1519 884 105 609 208 196
26 26 26 21 0 0 1 39 77 0 0 0 418 866 906 17 0 0 0 36 68 146 261 269 101 0 0 0 0 0 0 0 105 129 66 302 1244 1500 1358 970 436 758 548
14 15 10 35 5 0 0 0 87 25 1 0 150 720 802 60 0 0 0 0 0 110 87 0 0 0 0 0 0 0 2 0 1 139 113 483 1540 1477 985 809 741 955 385
4 5 13 14 20 6 0 0 25 87 51 47 67 164 448 297 1 0 0 0 0 0 0 0 0 0 0 0 0 0 0 10 136 166 178 1181 1670 1273 992 852 821 663 276
13 4 7 18 11 1 0 0 23 99 84 43 28 48 10 118 93 2 0 0 0 0 0 0 0 0 0 0 0 0 0 0 74 211 245 666 1495 1202 989 868 852 548 505
9 8 13 15 13 10 6 0 0 0 0 38 14 7 7 20 3 90 0 0 0 0 0 0 0 3 76 45 36 105 169 125 159 386 526 1084 1514 1185 830 888 653 627 314
11 13 12 14 23 29 41 22 2 0 0 0 0 0 0 30 39 0 0 0 0 0 0 0 85 151 1 0 1 29 11 105 323 305 288 665 1247 1076 322 778 629 532 340
14 5 11 7 22 14 4 41 2 7 5 1 0 0 0 0 0 0 0 0 0 0 0 0 0 0 0 0 0 0 15 15 551 373 549 743 1087 1069 744 628 624 554 425
10 2 9 6 2 19 13 9 7 5 0 0 9 0 0 0 0 0 0 3 0 0 0 0 0 0 0 0 0 0 0 91 297 453 585 591 1043 920 634 577 480 468 359
3 0 2 7 11 15 18 20 27 22 2 0 0 1 0 0 0 0 0 0 4 0 0 0 0 0 0 0 0 0 0 69 645 778 685 597 1012 902 600 409 299 268 61
0 0 0 8 12 11 29 32 30 29 13 0 0 0 0 0 0 0 0 0 0 0 0 0 0 0 0 0 0 2 31 151 379 890 654 488 683 701 480 349 253 226 177
4 0 0 10 0 1 16 31 28 27 32 37 2 0 0 0 11 1 0 0 0 0 0 0 0 0 0 0 0 0 148 540 840 681 664 660 701 463 379 294 208 141 19
3 26 12 1 0 0 0 3 14 13 25 6 34 21 0 0 7 34 3 0 0 0 0 0 0 0 0 0 59 139 176 431 679 611 536 555 521 323 290 178 151 111 53
4 7 15 32 17 0 1 2 6 4 1 0 0 0 2 16 24 25 19 24 6 0 0 0 0 0 0 1 23 293 710 703 567 497 537 507 434 125 159 54 41 25 0
5 7 6 7 6 10 30 3 44 57 3 4 21 39 45 58 42 27 15 19 139 50 153 73 32 1 0 30 315 495 431 236 210 301 421 369 173 35 19 16 3 0 0
2 3 5 7 6 6 5 4 38 78 37 21 27 71 54 64 51 116 122 86 31 42 184 261 270 309 131 173 155 342 161 30 0 0 115 205 67 31 10 37 10 0 0

GFSGL_con_sbcape_087.txt.gz
CAPE
0 0 0 0 49 13 156 363 300 257 739 1551 1836 1751 1524 1150 1295 1562 1722 1535 1548 1448 1725 1826 1721 1442 1078 1106 842 548 645 697 710 852 714 494 635 427 716 407 435 121 70
0 0 0 0 26 2 233 289 146 250 442 867 1683 1759 1291 935 3 1 404 1089 207 1138 1485 1691 1820 1676 1243 1150 967 812 893 1043 1041 1115 417 356 525 505 584 489 211 214 334
0 0 0 0 14 20 164 182 140 380 602 1106 1412 821 160 211 0 0 0 0 1 0 44 1236 1399 1559 1238 1279 1052 1046 1083 796 610 560 422 207 348 441 532 347 280 114 134
0 0 0 0 0 8 138 255 336 127 34 534 295 25 0 0 0 10 1 4 0 0 56 302 783 1233 1258 1413 986 732 606 479 219 248 140 165 79 2 352 337 269 64 112
0 0 0 0 0 0 1 184 249 144 260 486 106 0 0 0 0 5 0 0 0 0 95 552 1147 1336 1250 1022 660 242 0 0 0 0 0 1 2 0 4 19 58 27 20
5 0 0 0 0 0 0 7 58 98 104 372 69 88 0 0 0 0 3 97 402 735 739 948 477 570 319 482 31 0 0 0 0 0 0 0 0 0 0 55 0 0 0
19 3 0 0 0 0 0 0 56 4 0 2 2 202 4 0 0 0 126 392 615 609 770 43 32 3 0 0 0 0 0 0 0 0 0 0 0 0 71 96 78 4 0
18 16 18 12 0 0 0 0 32 0 0 0 0 85 52 223 0 0 0 51 506 314 83 1 4 0 0 0 0 0 0 0 0 0 0 0 0 0 23 206 138 47 4
18 19 16 11 14 2 0 0 0 51 1 0 0 28 7 36 21 0 0 192 324 183 144 23 8 1 0 0 0 0 0 0 0 5 0 0 0 0 0 63 195 59 3
16 18 15 9 7 9 0 0 2 23 7 0 5 22 80 132 0 0 21 549 243 140 69 3 25 0 0 0 0 0 0 0 0 16 0 0 0 0 0 0 135 242 0
12 8 19 14 6 17 6 0 0 1 3 0 1 2 19 0 0 0 441 401 174 94 71 0 0 0 0 0 0 0 0 0 8 11 0 0 0 3 345 0 13 175 22
8 9 9 3 7 9 2 0 0 25 13 0 1 3 0 0 0 0 253 239 148 90 97 18 0 0 0 0 0 0 0 0 0 0 0 0 0 45 662 450 170 173 42
3 2 4 4 6 8 15 5 0 16 9 0 1 0 0 5 0 0 2 80 75 7 0 2 0 0 0 0 0 1 1 0 0 0 0 0 0 337 680 573 297 176 179
4 13 1 2 3 6 11 3 0 1 37 0 1 0 1 23 0 0 0 0 0 0 0 0 0 0 0 0 0 0 0 0 0 0 0 0 359 839 771 386 436 311 147
8 1 11 4 4 4 4 6 0 2 4 5 0 0 0 62 20 0 0 0 0 0 0 0 0 0 0 0 0 0 0 0 0 0 0 5 94 596 714 517 390 307 97
19 16 9 12 12 7 1 0 0 0 0 0 0 0 1 23 0 0 0 2 0 0 0 0 0 0 0 0 0 0 0 0 0 0 0 9 381 835 860 515 475 402 179
6 6 7 4 8 6 3 4 0 0 0 0 0 0 0 9 0 0 0 0 0 0 0 0 0 0 0 0 0 0 0 0 0 0 2 185 350 534 618 549 528 313 211
0 0 0 0 0 7 1 15 1 10 1 0 0 0 0 0 0 0 24 0 0 0 0 0 0 0 0 0 0 0 0 0 0 0 24 110 280 415 631 522 475 328 153
0 0 0 0 0 3 0 2 4 14 1 0 0 0 0 0 0 0 0 0 0 0 0 0 0 0 0 0 0 0 0 0 0 0 53 259 288 406 466 477 309 277 212
0 0 0 0 0 10 13 14 11 1 1 0 0 0 0 0 0 0 0 0 0 0 0 0 0 0 0 0 0 0 0 0 0 0 121 211 312 493 528 402 184 141 40
5 0 0 0 0 0 2 2 1 0 0 0 0 0 0 0 0 0 0 0 0 0 0 0 0 0 0 0 0 0 0 0 0 0 175 240 276 387 418 366 217 97 83
4 7 0 1 0 0 0 1 0 3 1 0 0 0 0 0 0 0 0 0 0 0 0 0 0 0 0 0 0 0 0 0 0 11 179 257 230 299 325 265 121 43 0
4 5 3 4 0 0 0 0 0 0 0 2 0 0 0 0 0 0 0 0 0 0 0 0 0 0 0 0 0 0 0 0 0 135 225 204 264 369 299 90 34 0 0
4 4 5 3 4 4 6 0 0 0 0 0 0 0 4 0 0 0 0 0 0 0 0 0 0 0 0 0 0 0 0 0 196 293 204 174 257 256 118 12 7 25 8
4 4 4 6 7 7 6 4 8 5 1 0 0 0 1 1 0 0 0 0 0 0 0 0 0 0 0 0 0 0 0 14 359 300 303 303 313 253 108 3 3 4 0
4 4 5 2 5 5 6 4 5 6 6 6 1 0 0 0 0 0 0 0 0 0 0 0 0 0 0 0 0 0 0 0 13 174 72 193 183 112 62 27 2 0 0

GFSGL_con_sbcape_093.txt.gz
CAPE
0 0 0 0 0 0 0 0 0 0 0 0 7 1 0 6 7 110 320 510 488 205 66 64 71 9 0 202 442 141 114 99 132 139 103 51 304 359 248 336 120 50 0
0 0 0 0 0 0 0 0 0 0 0 0 5 22 61 42 47 93 149 410 297 186 95 31 123 7 0 0 31 110 150 19 24 170 140 104 171 107 117 60 46 48 0
0 0 0 0 0 0 0 0 0 0 0 0 11 19 14 24 32 61 115 304 415 148 128 90 206 0 0 1 0 0 1 174 99 103 162 37 25 0 1 0 0 0 0
0 0 0 0 2 2 0 0 0 4 1 0 1 57 62 38 42 90 94 246 367 590 567 121 0 0 0 0 0 0 15 23 86 224 117 16 4 0 0 2 0 0 0
4 3 1 0 0 0 1 0 2 12 6 2 0 23 67 74 155 184 160 256 422 315 264 192 64 14 68 93 50 8 0 0 1 88 53 0 0 0 1 0 0 0 0
0 1 2 1 1 2 9 7 4 3 1 3 0 0 8 79 178 148 94 215 452 291 135 60 26 0 0 0 2 1 0 7 34 99 25 0 0 0 0 0 0 0 0
1 3 2 2 3 2 3 9 9 1 1 4 17 21 18 36 94 104 1 0 170 154 144 109 17 0 0 0 0 0 0 5 16 12 0 0 0 0 0 0 0 0 0
2 2 3 3 4 4 4 8 14 4 0 0 0 55 66 74 67 41 1 2 50 42 72 62 10 0 0 0 0 0 0 0 0 0 0 0 0 0 0 0 0 0 0
3 4 4 4 5 5 7 5 8 15 10 29 8 15 37 44 92 0 0 3 8 46 2 1 0 0 0 0 0 0 0 0 0 0 0 0 0 0 0 0 0 0 0
3 3 4 5 6 9 5 6 11 28 29 8 1 47 36 16 28 1 0 3 9 0 218 223 167 0 0 0 0 0 0 0 0 0 0 0 1 0 0 0 0 0 0
4 2 3 14 16 5 5 6 13 13 11 16 7 6 27 12 1 0 1 1 13 6 139 0 0 0 0 0 0 0 0 0 0 0 0 0 0 0 0 0 0 0 0
3 2 2 17 36 52 25 17 17 13 17 2 0 0 4 5 0 0 0 1 3 4 6 0 0 0 0 0 0 0 0 0 0 0 0 0 0 0 0 0 0 2 115
3 2 5 11 21 36 25 13 12 7 16 2 0 0 0 3 0 0 0 1 1 23 9 0 0 0 0 0 0 0 0 0 0 0 0 0 0 0 0 0 1 4 1
2 2 2 2 9 11 17 14 6 2 9 6 23 11 0 1 2 0 0 1 1 1 0 0 0 0 0 0 0 0 0 0 0 0 0 0 0 0 11 149 63 10 0
2 2 0 1 1 1 3 9 3 1 6 3 0 9 9 0 2 0 0 3 1 0 0 0 0 0 0 0 0 0 0 0 0 0 0 0 0 0 0 0 10 17 3
4 2 2 0 0 0 0 0 0 0 0 0 0 0 1 0 0 0 1 1 0 0 0 0 0 0 0 0 0 0 0 0 0 0 0 0 0 0 0 20 46 34 4
3 2 3 0 0 0 1 0 0 0 0 0 0 1 0 0 0 0 1 1 0 0 0 0 0 0 0 0 0 0 0 0 0 0 0 0 0 0 1 28 73 22 8
1 0 5 1 0 0 0 1 0 0 0 0 0 1 1 1 1 0 2 0 0 0 0 0 0 0 0 0 0 0 0 0 0 0 0 0 0 0 6 35 80 106 55
4 6 4 2 0 0 0 0 1 0 0 0 0 0 0 1 1 2 3 0 0 0 0 0 0 0 0 0 0 0 0 0 0 0 0 0 0 0 0 8 6 21 41
4 2 1 3 6 0 0 0 0 0 0 0 0 0 0 0 0 0 0 0 0 0 0 0 0 0 0 0 0 0 0 0 0 0 0 0 0 0 0 0 0 0 23
5 5 0 3 3 6 6 0 0 0 0 0 0 0 0 0 0 0 0 0 0 0 0 0 0 0 0 0 0 0 0 0 0 0 0 0 0 0 0 0 0 0 0
6 4 4 5 6 5 5 4 5 0 0 0 0 0 0 0 0 0 0 0 0 0 0 0 0 0 0 0 0 0 0 0 0 0 0 0 0 0 0 0 0 0 0
8 7 4 3 5 5 5 5 6 4 2 1 0 0 0 0 0 0 0 0 0 0 0 0 0 0 0 0 0 0 0 0 0 0 0 0 0 0 0 0 0 0 3
8 9 7 5 5 3 6 6 6 3 5 7 4 3 0 0 0 0 0 0 0 0 0 0 0 0 0 0 0 0 0 0 0 0 0 0 0 0 0 0 0 0 4
8 9 7 7 7 6 4 5 6 5 8 8 8 6 4 3 2 0 0 0 0 0 0 0 0 0 0 0 0 0 0 0 0 0 0 0 0 0 0 0 0 0 0
1 2 6 6 6 5 5 4 5 6 7 9 8 7 6 7 4 3 1 0 0 0 0 0 0 0 0 0 0 0 0 0 0 0 0 0 0 0 0 0 0 0 0